| time (UTC) | temp F | wind direction | speed MPH | gust MPH | rain 1hr in | rain 24hr in | rain mn in | humidity % | barometer mb |
| 20260903074558 | 77 | 276 | 2.0 | 3.0 | 0.00 | 0.00 | 0.00 | 81 | 1015.5 |
| 20260903074458 | 77 | 302 | 0.0 | 2.0 | 0.00 | 0.00 | 0.00 | 81 | 1015.5 |
| 20260903074257 | 77 | 291 | 1.0 | 2.0 | 0.00 | 0.00 | 0.00 | 81 | 1015.5 |
| 20260903074157 | 77 | 295 | 2.0 | 2.0 | 0.00 | 0.00 | 0.00 | 81 | 1015.5 |
| 20260903074058 | 77 | 304 | 1.0 | 2.0 | 0.00 | 0.00 | 0.00 | 81 | 1015.6 |
| 20260903074000 | 77 | 310 | 1.0 | 2.0 | 0.00 | 0.00 | 0.00 | 81 | 1015.6 |
| 20260903073757 | 77 | 319 | 0.0 | 2.0 | 0.00 | 0.00 | 0.00 | 81 | 1015.7 |
| 20260903073558 | 77 | 307 | 1.0 | 2.0 | 0.00 | 0.00 | 0.00 | 81 | 1015.7 |
| 20260903073459 | 77 | 309 | 0.0 | 2.0 | 0.00 | 0.00 | 0.00 | 81 | 1015.7 |
| 20260903073357 | 77 | 310 | 1.0 | 2.0 | 0.00 | 0.00 | 0.00 | 81 | 1015.7 |
| 20260903073257 | 77 | 314 | 2.0 | 2.0 | 0.00 | 0.00 | 0.00 | 81 | 1015.6 |
| 20260903073157 | 77 | 316 | 0.0 | 2.0 | 0.00 | 0.00 | 0.00 | 81 | 1015.7 |
| 20260903073058 | 77 | 321 | 1.0 | 2.0 | 0.00 | 0.00 | 0.00 | 81 | 1015.7 |
| 20260903073000 | 77 | 307 | 2.0 | 2.0 | 0.00 | 0.00 | 0.00 | 81 | 1015.7 |
| 20260903072857 | 77 | 307 | 0.0 | 2.0 | 0.00 | 0.00 | 0.00 | 80 | 1015.7 |
| 20260903072757 | 77 | 326 | 2.0 | 2.0 | 0.00 | 0.00 | 0.00 | 80 | 1015.7 |
| 20260903072658 | 77 | 305 | 1.0 | 2.0 | 0.00 | 0.00 | 0.00 | 80 | 1015.7 |
| 20260903072459 | 77 | 310 | 0.0 | 2.0 | 0.00 | 0.00 | 0.00 | 80 | 1015.7 |
| 20260903072359 | 78 | 329 | 0.0 | 2.0 | 0.00 | 0.00 | 0.00 | 80 | 1015.7 |
| 20260903072258 | 78 | 333 | 1.0 | 2.0 | 0.00 | 0.00 | 0.00 | 80 | 1015.7 |
| 20260903072059 | 78 | 330 | 1.0 | 2.0 | 0.00 | 0.00 | 0.00 | 80 | 1015.7 |
| 20260903072000 | 78 | 316 | 1.0 | 2.0 | 0.00 | 0.00 | 0.00 | 80 | 1015.6 |
| 20260903071858 | 78 | 319 | 1.0 | 2.0 | 0.00 | 0.00 | 0.00 | 79 | 1015.6 |
| 20260903071658 | 78 | 309 | 1.0 | 2.0 | 0.00 | 0.00 | 0.00 | 79 | 1015.7 |
| 20260903071558 | 78 | 307 | 1.0 | 2.0 | 0.00 | 0.00 | 0.00 | 79 | 1015.7 |
| 20260903071500 | 78 | 317 | 0.0 | 2.0 | 0.00 | 0.00 | 0.00 | 79 | 1015.6 |
| 20260903071358 | 78 | 328 | 0.0 | 2.0 | 0.00 | 0.00 | 0.00 | 79 | 1015.7 |
| 20260903071057 | 78 | 319 | 2.0 | 2.0 | 0.00 | 0.00 | 0.00 | 79 | 1015.7 |
| 20260903070959 | 78 | 328 | 0.0 | 2.0 | 0.00 | 0.00 | 0.00 | 79 | 1015.7 |
| 20260903070859 | 78 | 303 | 1.0 | 2.0 | 0.00 | 0.00 | 0.00 | 79 | 1015.7 |
| 20260903070757 | 78 | 309 | 0.0 | 2.0 | 0.00 | 0.00 | 0.00 | 79 | 1015.8 |
| 20260903070658 | 78 | 319 | 0.0 | 2.0 | 0.00 | 0.00 | 0.00 | 79 | 1015.8 |
| 20260903070158 | 78 | 319 | 2.0 | 3.0 | 0.00 | 0.00 | 0.00 | 79 | 1015.7 |
| 20260903065757 | 78 | 338 | 2.0 | 3.0 | 0.00 | 0.00 | 0.00 | 78 | 1015.8 |
| 20260903065657 | 78 | 345 | 1.0 | 3.0 | 0.00 | 0.00 | 0.00 | 78 | 1015.7 |
| 20260903065557 | 78 | 342 | 0.0 | 3.0 | 0.00 | 0.00 | 0.00 | 78 | 1015.8 |
| 20260903065458 | 78 | 335 | 2.0 | 3.0 | 0.00 | 0.00 | 0.00 | 78 | 1015.9 |
| 20260903065357 | 79 | 333 | 2.0 | 3.0 | 0.00 | 0.00 | 0.00 | 78 | 1015.8 |
| 20260903065257 | 79 | 342 | 2.0 | 3.0 | 0.00 | 0.00 | 0.00 | 78 | 1015.9 |
| 20260903065159 | 79 | 323 | 0.0 | 2.0 | 0.00 | 0.00 | 0.00 | 78 | 1015.9 |
| 20260903064959 | 79 | 307 | 0.0 | 2.0 | 0.00 | 0.00 | 0.00 | 78 | 1015.9 |
| 20260903064857 | 79 | 342 | 2.0 | 2.0 | 0.00 | 0.00 | 0.00 | 77 | 1015.9 |
| 20260903064657 | 79 | 323 | 0.0 | 2.0 | 0.00 | 0.00 | 0.00 | 77 | 1016.0 |
| 20260903064459 | 79 | 324 | 0.0 | 2.0 | 0.00 | 0.00 | 0.00 | 77 | 1015.9 |
| 20260903064358 | 79 | 324 | 0.0 | 2.0 | 0.00 | 0.00 | 0.00 | 77 | 1015.9 |
| 20260903064258 | 79 | 326 | 0.0 | 2.0 | 0.00 | 0.00 | 0.00 | 77 | 1016.0 |
| 20260903064157 | 79 | 293 | 0.0 | 2.0 | 0.00 | 0.00 | 0.00 | 76 | 1016.0 |
| 20260903064057 | 79 | 307 | 0.0 | 2.0 | 0.00 | 0.00 | 0.00 | 77 | 1016.0 |
| 20260903063959 | 79 | 309 | 0.0 | 2.0 | 0.00 | 0.00 | 0.00 | 77 | 1016.0 |
| 20260903063857 | 79 | 309 | 0.0 | 2.0 | 0.00 | 0.00 | 0.00 | 76 | 1016.0 |
| 20260903063658 | 79 | 274 | 0.0 | 2.0 | 0.00 | 0.00 | 0.00 | 76 | 1015.9 |
| 20260903063558 | 79 | 340 | 0.0 | 2.0 | 0.00 | 0.00 | 0.00 | 76 | 1015.9 |
| 20260903063500 | 79 | 293 | 0.0 | 3.0 | 0.00 | 0.00 | 0.00 | 76 | 1015.9 |
| 20260903063357 | 79 | 288 | 1.0 | 3.0 | 0.00 | 0.00 | 0.00 | 76 | 1016.0 |
| 20260903063256 | 79 | 305 | 0.0 | 3.0 | 0.00 | 0.00 | 0.00 | 76 | 1016.0 |
| 20260903063158 | 79 | 304 | 0.0 | 3.0 | 0.00 | 0.00 | 0.00 | 76 | 1015.9 |
| 20260903063058 | 79 | 288 | 0.0 | 3.0 | 0.00 | 0.00 | 0.00 | 76 | 1016.0 |
| 20260903062959 | 79 | 309 | 0.0 | 3.0 | 0.00 | 0.00 | 0.00 | 76 | 1016.0 |
| 20260903062857 | 80 | 321 | 1.0 | 3.0 | 0.00 | 0.00 | 0.00 | 76 | 1016.0 |
| 20260903062758 | 80 | 307 | 0.0 | 3.0 | 0.00 | 0.00 | 0.00 | 76 | 1016.0 |
| 20260903062659 | 80 | 288 | 0.0 | 3.0 | 0.00 | 0.00 | 0.00 | 76 | 1016.0 |
| 20260903062557 | 80 | 352 | 3.0 | 3.0 | 0.00 | 0.00 | 0.00 | 76 | 1016.0 |
| 20260903062458 | 80 | 329 | 0.0 | 2.0 | 0.00 | 0.00 | 0.00 | 76 | 1016.0 |
| 20260903062357 | 80 | 329 | 0.0 | 2.0 | 0.00 | 0.00 | 0.00 | 76 | 1016.0 |
| 20260903062257 | 80 | 333 | 0.0 | 2.0 | 0.00 | 0.00 | 0.00 | 76 | 1016.0 |
| 20260903062058 | 80 | 319 | 0.0 | 2.0 | 0.00 | 0.00 | 0.00 | 76 | 1016.0 |
| 20260903061959 | 80 | 293 | 1.0 | 2.0 | 0.00 | 0.00 | 0.00 | 76 | 1016.0 |
| 20260903061857 | 80 | 328 | 0.0 | 2.0 | 0.00 | 0.00 | 0.00 | 75 | 1016.1 |
| 20260903061758 | 80 | 293 | 0.0 | 2.0 | 0.00 | 0.00 | 0.00 | 75 | 1016.1 |
| 20260903061657 | 80 | 302 | 1.0 | 2.0 | 0.00 | 0.00 | 0.00 | 75 | 1016.1 |
| 20260903061558 | 80 | 300 | 0.0 | 2.0 | 0.00 | 0.00 | 0.00 | 75 | 1016.1 |
| 20260903061358 | 80 | 323 | 0.0 | 3.0 | 0.00 | 0.00 | 0.00 | 75 | 1016.1 |
| 20260903061257 | 80 | 286 | 0.0 | 3.0 | 0.00 | 0.00 | 0.00 | 75 | 1016.1 |
| 20260903061157 | 80 | 300 | 0.0 | 3.0 | 0.00 | 0.00 | 0.00 | 75 | 1016.1 |
| 20260903061000 | 80 | 287 | 1.0 | 3.0 | 0.00 | 0.00 | 0.00 | 75 | 1016.1 |
| 20260903060858 | 80 | 319 | 2.0 | 3.0 | 0.00 | 0.00 | 0.00 | 75 | 1016.1 |
| 20260903060659 | 80 | 336 | 1.0 | 4.0 | 0.00 | 0.00 | 0.00 | 75 | 1016.1 |
| 20260903060358 | 80 | 321 | 2.0 | 4.0 | 0.00 | 0.00 | 0.00 | 75 | 1016.1 |
| 20260903060258 | 80 | 329 | 2.0 | 4.0 | 0.00 | 0.00 | 0.00 | 75 | 1016.1 |
| 20260903060058 | 80 | 314 | 0.0 | 4.0 | 0.00 | 0.00 | 0.00 | 75 | 1016.2 |
| 20260903060002 | 80 | 317 | 2.0 | 4.0 | 0.00 | 0.00 | 0.00 | 75 | 1016.2 |
| 20260903055900 | 80 | 279 | 2.0 | 4.0 | 0.00 | 0.00 | 0.00 | 75 | 1016.3 |
| 20260903055800 | 80 | 360 | 3.0 | 4.0 | 0.00 | 0.00 | 0.00 | 75 | 1016.3 |
| 20260903055659 | 80 | 342 | 1.0 | 3.0 | 0.00 | 0.00 | 0.00 | 75 | 1016.4 |
| 20260903055600 | 80 | 326 | 2.0 | 3.0 | 0.00 | 0.00 | 0.00 | 76 | 1016.3 |
| 20260903055500 | 80 | 286 | 2.0 | 3.0 | 0.00 | 0.00 | 0.00 | 76 | 1016.4 |
| 20260903055358 | 80 | 328 | 0.0 | 3.0 | 0.00 | 0.00 | 0.00 | 76 | 1016.3 |
| 20260903055159 | 80 | 347 | 2.0 | 3.0 | 0.00 | 0.00 | 0.00 | 76 | 1016.3 |
| 20260903055003 | 80 | 326 | 1.0 | 3.0 | 0.00 | 0.00 | 0.00 | 76 | 1016.4 |
| 20260903054900 | 80 | 356 | 2.0 | 2.0 | 0.00 | 0.00 | 0.00 | 76 | 1016.3 |
| 20260903054659 | 80 | 299 | 2.0 | 2.0 | 0.00 | 0.00 | 0.00 | 76 | 1016.3 |
| 20260903054501 | 80 | 294 | 0.0 | 2.0 | 0.00 | 0.00 | 0.00 | 76 | 1016.3 |
| 20260903054359 | 80 | 308 | 2.0 | 2.0 | 0.00 | 0.00 | 0.00 | 76 | 1016.3 |
| 20260903054300 | 80 | 305 | 0.0 | 2.0 | 0.00 | 0.00 | 0.00 | 76 | 1016.2 |
| 20260903054200 | 80 | 303 | 0.0 | 2.0 | 0.00 | 0.00 | 0.00 | 76 | 1016.3 |
| 20260903054059 | 80 | 322 | 1.0 | 3.0 | 0.00 | 0.00 | 0.00 | 76 | 1016.3 |
| 20260903054004 | 80 | 317 | 0.0 | 3.0 | 0.00 | 0.00 | 0.00 | 76 | 1016.3 |
| 20260903053859 | 80 | 285 | 0.0 | 3.0 | 0.00 | 0.00 | 0.00 | 76 | 1016.3 |
| 20260903053759 | 80 | 333 | 0.0 | 3.0 | 0.00 | 0.00 | 0.00 | 76 | 1016.4 |
| 20260903053659 | 80 | 326 | 0.0 | 3.0 | 0.00 | 0.00 | 0.00 | 76 | 1016.4 |
| 20260903053559 | 80 | 296 | 0.0 | 3.0 | 0.00 | 0.00 | 0.00 | 77 | 1016.4 |
| 20260903053500 | 80 | 296 | 0.0 | 3.0 | 0.00 | 0.00 | 0.00 | 76 | 1016.4 |
| 20260903053159 | 79 | 40 | 0.0 | 3.0 | 0.00 | 0.00 | 0.00 | 77 | 1016.3 |
| 20260903053059 | 79 | 335 | 0.0 | 3.0 | 0.00 | 0.00 | 0.00 | 78 | 1016.3 |
| 20260903052859 | 79 | 335 | 1.0 | 3.0 | 0.00 | 0.00 | 0.00 | 78 | 1016.3 |
| 20260903052759 | 79 | 282 | 0.0 | 3.0 | 0.00 | 0.00 | 0.00 | 79 | 1016.3 |
| 20260903052659 | 79 | 293 | 1.0 | 3.0 | 0.00 | 0.00 | 0.00 | 79 | 1016.2 |
| 20260903052559 | 79 | 317 | 0.0 | 3.0 | 0.00 | 0.00 | 0.00 | 79 | 1016.2 |
| 20260903052503 | 79 | 307 | 2.0 | 3.0 | 0.00 | 0.00 | 0.00 | 79 | 1016.2 |
| 20260903052359 | 79 | 324 | 2.0 | 3.0 | 0.00 | 0.00 | 0.00 | 79 | 1016.2 |
| 20260903052300 | 79 | 303 | 2.0 | 3.0 | 0.00 | 0.00 | 0.00 | 79 | 1016.2 |
| 20260903052159 | 79 | 263 | 2.0 | 3.0 | 0.00 | 0.00 | 0.00 | 79 | 1016.1 |
| 20260903052059 | 79 | 329 | 0.0 | 3.0 | 0.00 | 0.00 | 0.00 | 79 | 1016.1 |
| 20260903052003 | 79 | 311 | 0.0 | 3.0 | 0.00 | 0.00 | 0.00 | 79 | 1016.1 |
| 20260903051900 | 79 | 316 | 2.0 | 3.0 | 0.00 | 0.00 | 0.00 | 79 | 1016.1 |
| 20260903051759 | 79 | 311 | 0.0 | 3.0 | 0.00 | 0.00 | 0.00 | 79 | 1016.1 |
| 20260903051659 | 79 | 314 | 2.0 | 3.0 | 0.00 | 0.00 | 0.00 | 79 | 1016.1 |
| 20260903051559 | 79 | 316 | 1.0 | 3.0 | 0.00 | 0.00 | 0.00 | 79 | 1016.1 |
| 20260903051500 | 79 | 317 | 2.0 | 3.0 | 0.00 | 0.00 | 0.00 | 79 | 1016.0 |
| 20260903051359 | 79 | 309 | 2.0 | 3.0 | 0.00 | 0.00 | 0.00 | 79 | 1016.0 |
| 20260903051259 | 79 | 303 | 2.0 | 3.0 | 0.00 | 0.00 | 0.00 | 79 | 1016.0 |
| 20260903051159 | 79 | 307 | 2.0 | 3.0 | 0.00 | 0.00 | 0.00 | 79 | 1016.1 |
| 20260903051059 | 79 | 335 | 2.0 | 3.0 | 0.00 | 0.00 | 0.00 | 79 | 1016.0 |
| 20260903050759 | 79 | 319 | 2.0 | 2.0 | 0.00 | 0.00 | 0.00 | 78 | 1016.0 |
| 20260903050659 | 79 | 340 | 2.0 | 2.0 | 0.00 | 0.00 | 0.00 | 78 | 1016.0 |
| 20260903050559 | 79 | 309 | 0.0 | 3.0 | 0.00 | 0.00 | 0.00 | 78 | 1016.0 |
| 20260903050502 | 79 | 328 | 2.0 | 3.0 | 0.00 | 0.00 | 0.00 | 78 | 1016.0 |
| 20260903050159 | 79 | 304 | 2.0 | 3.0 | 0.00 | 0.00 | 0.00 | 78 | 1016.0 |
| 20260903050100 | 79 | 314 | 2.0 | 3.0 | 0.00 | 0.00 | 0.00 | 78 | 1016.0 |
| 20260903050007 | 80 | 287 | 1.0 | 3.0 | 0.00 | 0.00 | 0.00 | 78 | 1016.0 |
| 20260903045900 | 79 | 304 | 2.0 | 3.0 | 0.00 | 0.00 | 0.00 | 78 | 1016.0 |
| 20260903045759 | 79 | 305 | 2.0 | 3.0 | 0.00 | 0.00 | 0.00 | 78 | 1016.1 |
| 20260903045700 | 80 | 294 | 2.0 | 3.0 | 0.00 | 0.00 | 0.00 | 78 | 1016.1 |
| 20260903045600 | 80 | 302 | 3.0 | 3.0 | 0.00 | 0.00 | 0.00 | 78 | 1016.0 |
| 20260903045501 | 80 | 307 | 2.0 | 3.0 | 0.00 | 0.00 | 0.00 | 78 | 1016.0 |
| 20260903045300 | 80 | 279 | 2.0 | 3.0 | 0.00 | 0.00 | 0.00 | 78 | 1016.0 |
| 20260903045159 | 80 | 319 | 2.0 | 3.0 | 0.00 | 0.00 | 0.00 | 78 | 1016.0 |
| 20260903045100 | 80 | 295 | 2.0 | 3.0 | 0.00 | 0.00 | 0.00 | 78 | 1016.0 |
| 20260903045002 | 80 | 288 | 3.0 | 3.0 | 0.00 | 0.00 | 0.00 | 78 | 1016.0 |
| 20260903044859 | 80 | 301 | 2.0 | 3.0 | 0.00 | 0.00 | 0.00 | 78 | 1016.0 |
| 20260903044800 | 80 | 304 | 2.0 | 3.0 | 0.00 | 0.00 | 0.00 | 78 | 1016.0 |
| 20260903044700 | 80 | 311 | 2.0 | 3.0 | 0.00 | 0.00 | 0.00 | 78 | 1016.0 |
| 20260903044559 | 80 | 307 | 2.0 | 3.0 | 0.00 | 0.00 | 0.00 | 78 | 1016.0 |
| 20260903044500 | 80 | 300 | 2.0 | 3.0 | 0.00 | 0.00 | 0.00 | 78 | 1015.9 |
| 20260903044359 | 80 | 311 | 2.0 | 3.0 | 0.00 | 0.00 | 0.00 | 78 | 1015.9 |
| 20260903044159 | 80 | 290 | 2.0 | 3.0 | 0.00 | 0.00 | 0.00 | 77 | 1015.9 |
| 20260903044059 | 80 | 304 | 2.0 | 3.0 | 0.00 | 0.00 | 0.00 | 77 | 1015.9 |
| 20260903044003 | 80 | 319 | 2.0 | 3.0 | 0.00 | 0.00 | 0.00 | 77 | 1016.0 |
| 20260903043900 | 80 | 304 | 2.0 | 3.0 | 0.00 | 0.00 | 0.00 | 77 | 1016.0 |
| 20260903043759 | 80 | 316 | 2.0 | 3.0 | 0.00 | 0.00 | 0.00 | 78 | 1016.0 |
| 20260903043659 | 80 | 289 | 2.0 | 3.0 | 0.00 | 0.00 | 0.00 | 77 | 1016.0 |
| 20260903043600 | 80 | 296 | 2.0 | 3.0 | 0.00 | 0.00 | 0.00 | 77 | 1016.0 |
| 20260903043503 | 80 | 302 | 2.0 | 3.0 | 0.00 | 0.00 | 0.00 | 77 | 1016.1 |
| 20260903043359 | 80 | 294 | 2.0 | 3.0 | 0.00 | 0.00 | 0.00 | 77 | 1016.1 |
| 20260903043259 | 80 | 295 | 0.0 | 3.0 | 0.00 | 0.00 | 0.00 | 77 | 1016.0 |
| 20260903043200 | 80 | 311 | 2.0 | 3.0 | 0.00 | 0.00 | 0.00 | 77 | 1016.0 |
| 20260903043059 | 80 | 317 | 1.0 | 3.0 | 0.00 | 0.00 | 0.00 | 77 | 1016.2 |
| 20260903043003 | 80 | 324 | 2.0 | 3.0 | 0.00 | 0.00 | 0.00 | 77 | 1016.0 |
| 20260903042900 | 80 | 300 | 2.0 | 3.0 | 0.00 | 0.00 | 0.00 | 77 | 1016.0 |
| 20260903042800 | 80 | 314 | 2.0 | 3.0 | 0.00 | 0.00 | 0.00 | 77 | 1016.0 |
| 20260903042700 | 80 | 314 | 3.0 | 3.0 | 0.00 | 0.00 | 0.00 | 77 | 1015.9 |
| 20260903042600 | 80 | 319 | 1.0 | 3.0 | 0.00 | 0.00 | 0.00 | 77 | 1015.9 |
| 20260903042400 | 80 | 301 | 1.0 | 3.0 | 0.00 | 0.00 | 0.00 | 77 | 1015.9 |
| 20260903042259 | 80 | 295 | 2.0 | 3.0 | 0.00 | 0.00 | 0.00 | 77 | 1016.0 |
| 20260903042159 | 80 | 314 | 2.0 | 3.0 | 0.00 | 0.00 | 0.00 | 77 | 1016.0 |
| 20260903042058 | 80 | 315 | 2.0 | 3.0 | 0.00 | 0.00 | 0.00 | 77 | 1015.9 |
| 20260903042003 | 80 | 305 | 3.0 | 3.0 | 0.00 | 0.00 | 0.00 | 77 | 1016.0 |
| 20260903041859 | 80 | 294 | 2.0 | 3.0 | 0.00 | 0.00 | 0.00 | 77 | 1015.9 |
| 20260903041700 | 80 | 295 | 2.0 | 3.0 | 0.00 | 0.00 | 0.00 | 77 | 1015.9 |
| 20260903041503 | 80 | 295 | 2.0 | 3.0 | 0.00 | 0.00 | 0.00 | 77 | 1015.9 |
| 20260903041400 | 80 | 294 | 2.0 | 3.0 | 0.00 | 0.00 | 0.00 | 77 | 1015.9 |
| 20260903041259 | 80 | 300 | 2.0 | 3.0 | 0.00 | 0.00 | 0.00 | 76 | 1016.0 |
| 20260903041159 | 80 | 295 | 2.0 | 3.0 | 0.00 | 0.00 | 0.00 | 76 | 1016.0 |
| 20260903041059 | 81 | 316 | 2.0 | 3.0 | 0.00 | 0.00 | 0.00 | 76 | 1015.9 |
| 20260903041003 | 81 | 316 | 2.0 | 2.0 | 0.00 | 0.00 | 0.00 | 76 | 1016.0 |
| 20260903040859 | 81 | 311 | 2.0 | 2.0 | 0.00 | 0.00 | 0.00 | 76 | 1016.0 |
| 20260903040659 | 81 | 281 | 1.0 | 2.0 | 0.00 | 0.00 | 0.00 | 76 | 1015.9 |
| 20260903040559 | 81 | 293 | 2.0 | 2.0 | 0.00 | 0.00 | 0.00 | 76 | 1015.9 |
| 20260903040502 | 81 | 317 | 2.0 | 3.0 | 0.00 | 0.00 | 0.00 | 76 | 1016.0 |
| 20260903040359 | 81 | 307 | 1.0 | 3.0 | 0.00 | 0.00 | 0.00 | 76 | 1016.1 |
| 20260903040100 | 81 | 317 | 0.0 | 3.0 | 0.00 | 0.00 | 0.00 | 76 | 1016.0 |
| 20260903040003 | 81 | 269 | 0.0 | 3.0 | 0.00 | 0.00 | 0.00 | 76 | 1016.0 |
| 20260903035901 | 81 | 283 | 2.0 | 3.0 | 0.00 | 0.00 | 0.00 | 76 | 1016.1 |
| 20260903035701 | 81 | 285 | 0.0 | 3.0 | 0.00 | 0.00 | 0.00 | 76 | 1016.0 |
| 20260903035559 | 81 | 307 | 2.0 | 3.0 | 0.00 | 0.00 | 0.00 | 75 | 1016.0 |
| 20260903035503 | 81 | 285 | 2.0 | 3.0 | 0.00 | 0.00 | 0.00 | 75 | 1016.0 |
| 20260903035359 | 81 | 285 | 2.0 | 3.0 | 0.00 | 0.00 | 0.00 | 75 | 1015.9 |
| 20260903035259 | 81 | 288 | 2.0 | 3.0 | 0.00 | 0.00 | 0.00 | 75 | 1015.9 |
| 20260903035159 | 81 | 277 | 3.0 | 3.0 | 0.00 | 0.00 | 0.00 | 75 | 1015.9 |
| 20260903035059 | 81 | 297 | 2.0 | 3.0 | 0.00 | 0.00 | 0.00 | 75 | 1015.9 |
| 20260903035003 | 81 | 287 | 0.0 | 3.0 | 0.00 | 0.00 | 0.00 | 75 | 1015.9 |
| 20260903034900 | 81 | 287 | 0.0 | 3.0 | 0.00 | 0.00 | 0.00 | 75 | 1015.9 |
| 20260903034801 | 81 | 287 | 0.0 | 3.0 | 0.00 | 0.00 | 0.00 | 75 | 1015.9 |
| 20260903034659 | 81 | 287 | 0.0 | 3.0 | 0.00 | 0.00 | 0.00 | 75 | 1015.9 |
| 20260903034601 | 81 | 297 | 0.0 | 3.0 | 0.00 | 0.00 | 0.00 | 75 | 1015.9 |
| 20260903034501 | 81 | 295 | 0.0 | 3.0 | 0.00 | 0.00 | 0.00 | 75 | 1015.9 |
| 20260903034300 | 81 | 301 | 2.0 | 3.0 | 0.00 | 0.00 | 0.00 | 75 | 1015.9 |
| 20260903034158 | 81 | 304 | 2.0 | 3.0 | 0.00 | 0.00 | 0.00 | 74 | 1015.9 |
| 20260903034100 | 81 | 286 | 1.0 | 3.0 | 0.00 | 0.00 | 0.00 | 74 | 1015.9 |
| 20260903033900 | 82 | 294 | 1.0 | 3.0 | 0.00 | 0.00 | 0.00 | 74 | 1016.0 |
| 20260903033759 | 82 | 316 | 1.0 | 3.0 | 0.00 | 0.00 | 0.00 | 74 | 1015.9 |
| 20260903033700 | 82 | 302 | 1.0 | 3.0 | 0.00 | 0.00 | 0.00 | 74 | 1015.9 |
| 20260903033558 | 82 | 300 | 1.0 | 3.0 | 0.00 | 0.00 | 0.00 | 74 | 1016.0 |
| 20260903033503 | 82 | 294 | 2.0 | 3.0 | 0.00 | 0.00 | 0.00 | 74 | 1015.9 |
| 20260903033359 | 82 | 300 | 2.0 | 3.0 | 0.00 | 0.00 | 0.00 | 74 | 1015.9 |
| 20260903033259 | 82 | 301 | 2.0 | 3.0 | 0.00 | 0.00 | 0.00 | 74 | 1015.8 |
| 20260903033059 | 82 | 271 | 2.0 | 3.0 | 0.00 | 0.00 | 0.00 | 74 | 1015.8 |
| 20260903032759 | 82 | 286 | 1.0 | 3.0 | 0.00 | 0.00 | 0.00 | 74 | 1015.8 |
| 20260903032658 | 82 | 301 | 2.0 | 3.0 | 0.00 | 0.00 | 0.00 | 74 | 1015.8 |
| 20260903032558 | 82 | 286 | 2.0 | 3.0 | 0.00 | 0.00 | 0.00 | 74 | 1015.8 |
| 20260903032358 | 82 | 301 | 2.0 | 3.0 | 0.00 | 0.00 | 0.00 | 74 | 1015.9 |
| 20260903032258 | 82 | 307 | 2.0 | 3.0 | 0.00 | 0.00 | 0.00 | 74 | 1015.9 |
| 20260903032158 | 82 | 293 | 2.0 | 3.0 | 0.00 | 0.00 | 0.00 | 74 | 1015.8 |
| 20260903032059 | 82 | 304 | 1.0 | 3.0 | 0.00 | 0.00 | 0.00 | 73 | 1015.9 |
| 20260903032003 | 82 | 271 | 2.0 | 3.0 | 0.00 | 0.00 | 0.00 | 73 | 1015.9 |
| 20260903031858 | 82 | 295 | 0.0 | 3.0 | 0.00 | 0.00 | 0.00 | 73 | 1015.9 |
| 20260903031759 | 82 | 293 | 2.0 | 3.0 | 0.00 | 0.00 | 0.00 | 73 | 1015.9 |
| 20260903031659 | 82 | 304 | 1.0 | 2.0 | 0.00 | 0.00 | 0.00 | 73 | 1016.0 |
| 20260903031558 | 82 | 288 | 2.0 | 2.0 | 0.00 | 0.00 | 0.00 | 73 | 1016.1 |
| 20260903031502 | 82 | 302 | 0.0 | 2.0 | 0.00 | 0.00 | 0.00 | 73 | 1016.0 |
| 20260903031358 | 82 | 307 | 2.0 | 2.0 | 0.00 | 0.00 | 0.00 | 73 | 1016.1 |
| 20260903031259 | 82 | 300 | 2.0 | 2.0 | 0.00 | 0.00 | 0.00 | 73 | 1016.0 |
| 20260903031058 | 82 | 312 | 0.0 | 2.0 | 0.00 | 0.00 | 0.00 | 73 | 1016.0 |
| 20260903031002 | 82 | 267 | 0.0 | 0.0 | 0.00 | 0.00 | 0.00 | 73 | 1015.9 |
| 20260903030858 | 83 | 267 | 0.0 | 1.0 | 0.00 | 0.00 | 0.00 | 73 | 1015.9 |
| 20260903030759 | 83 | 267 | 0.0 | 2.0 | 0.00 | 0.00 | 0.00 | 73 | 1015.9 |
| 20260903030658 | 83 | 307 | 0.0 | 2.0 | 0.00 | 0.00 | 0.00 | 72 | 1016.0 |
| 20260903030559 | 83 | 307 | 0.0 | 2.0 | 0.00 | 0.00 | 0.00 | 72 | 1015.9 |
| 20260903030500 | 83 | 307 | 0.0 | 2.0 | 0.00 | 0.00 | 0.00 | 72 | 1015.9 |
| 20260903030358 | 83 | 281 | 0.0 | 2.0 | 0.00 | 0.00 | 0.00 | 72 | 1016.0 |
| 20260903030258 | 83 | 273 | 0.0 | 2.0 | 0.00 | 0.00 | 0.00 | 72 | 1016.0 |
| 20260903030158 | 83 | 294 | 0.0 | 2.0 | 0.00 | 0.00 | 0.00 | 72 | 1016.0 |
| 20260903030059 | 83 | 309 | 0.0 | 2.0 | 0.00 | 0.00 | 0.00 | 72 | 1016.0 |
| 20260903030005 | 83 | 309 | 0.0 | 2.0 | 0.00 | 0.00 | 0.00 | 72 | 1016.0 |
| 20260903025859 | 83 | 308 | 1.0 | 2.0 | 0.00 | 0.00 | 0.00 | 72 | 1016.0 |
| 20260903025800 | 83 | 304 | 0.0 | 2.0 | 0.00 | 0.00 | 0.00 | 72 | 1016.0 |
| 20260903025700 | 83 | 319 | 0.0 | 2.0 | 0.00 | 0.00 | 0.00 | 72 | 1015.9 |
| 20260903025559 | 83 | 305 | 2.0 | 2.0 | 0.00 | 0.00 | 0.00 | 72 | 1015.9 |
| 20260903025259 | 83 | 300 | 1.0 | 2.0 | 0.00 | 0.00 | 0.00 | 72 | 1016.0 |
| 20260903025158 | 83 | 302 | 0.0 | 2.0 | 0.00 | 0.00 | 0.00 | 72 | 1015.9 |
| 20260903025100 | 83 | 308 | 0.0 | 2.0 | 0.00 | 0.00 | 0.00 | 72 | 1016.0 |
| 20260903025003 | 83 | 310 | 1.0 | 2.0 | 0.00 | 0.00 | 0.00 | 72 | 1016.0 |
| 20260903024759 | 83 | 326 | 0.0 | 2.0 | 0.00 | 0.00 | 0.00 | 72 | 1016.0 |
| 20260903024659 | 83 | 333 | 0.0 | 2.0 | 0.00 | 0.00 | 0.00 | 72 | 1016.0 |
| 20260903024600 | 83 | 333 | 0.0 | 2.0 | 0.00 | 0.00 | 0.00 | 72 | 1016.0 |
| 20260903024500 | 83 | 303 | 0.0 | 2.0 | 0.00 | 0.00 | 0.00 | 72 | 1015.9 |
| 20260903024259 | 83 | 300 | 0.0 | 2.0 | 0.00 | 0.00 | 0.00 | 72 | 1015.9 |
| 20260903024158 | 83 | 300 | 0.0 | 2.0 | 0.00 | 0.00 | 0.00 | 72 | 1016.0 |
| 20260903024058 | 83 | 309 | 0.0 | 2.0 | 0.00 | 0.00 | 0.00 | 72 | 1016.0 |
| 20260903024003 | 83 | 307 | 0.0 | 2.0 | 0.00 | 0.00 | 0.00 | 72 | 1016.0 |
| 20260903023900 | 83 | 278 | 0.0 | 2.0 | 0.00 | 0.00 | 0.00 | 72 | 1016.0 |
| 20260903023759 | 83 | 328 | 0.0 | 2.0 | 0.00 | 0.00 | 0.00 | 72 | 1016.0 |
| 20260903023559 | 83 | 284 | 1.0 | 2.0 | 0.00 | 0.00 | 0.00 | 72 | 1016.0 |
| 20260903023359 | 83 | 303 | 0.0 | 2.0 | 0.00 | 0.00 | 0.00 | 72 | 1016.0 |
| 20260903023258 | 83 | 269 | 0.0 | 2.0 | 0.00 | 0.00 | 0.00 | 72 | 1015.9 |
| 20260903023159 | 83 | 269 | 0.0 | 2.0 | 0.00 | 0.00 | 0.00 | 72 | 1016.0 |
| 20260903023059 | 83 | 285 | 0.0 | 2.0 | 0.00 | 0.00 | 0.00 | 72 | 1015.9 |
| 20260903022859 | 83 | 302 | 0.0 | 2.0 | 0.00 | 0.00 | 0.00 | 72 | 1015.9 |
| 20260903022759 | 83 | 312 | 0.0 | 2.0 | 0.00 | 0.00 | 0.00 | 71 | 1016.0 |
| 20260903022659 | 83 | 296 | 1.0 | 2.0 | 0.00 | 0.00 | 0.00 | 71 | 1016.0 |
| 20260903022600 | 83 | 293 | 0.0 | 2.0 | 0.00 | 0.00 | 0.00 | 71 | 1015.9 |
| 20260903022500 | 83 | 303 | 0.0 | 2.0 | 0.00 | 0.00 | 0.00 | 71 | 1016.0 |
| 20260903022259 | 83 | 311 | 0.0 | 2.0 | 0.00 | 0.00 | 0.00 | 71 | 1015.9 |
| 20260903022200 | 83 | 297 | 0.0 | 2.0 | 0.00 | 0.00 | 0.00 | 71 | 1015.9 |
| 20260903022059 | 83 | 296 | 0.0 | 2.0 | 0.00 | 0.00 | 0.00 | 71 | 1015.9 |
| 20260903022003 | 84 | 296 | 0.0 | 2.0 | 0.00 | 0.00 | 0.00 | 71 | 1015.9 |
| 20260903021900 | 84 | 296 | 0.0 | 2.0 | 0.00 | 0.00 | 0.00 | 71 | 1015.9 |
| 20260903021759 | 84 | 303 | 0.0 | 2.0 | 0.00 | 0.00 | 0.00 | 71 | 1015.9 |
| 20260903021659 | 84 | 300 | 0.0 | 2.0 | 0.00 | 0.00 | 0.00 | 71 | 1015.9 |
| 20260903021559 | 84 | 300 | 0.0 | 2.0 | 0.00 | 0.00 | 0.00 | 71 | 1015.9 |
| 20260903021358 | 84 | 296 | 0.0 | 2.0 | 0.00 | 0.00 | 0.00 | 71 | 1015.9 |
| 20260903021300 | 83 | 296 | 0.0 | 2.0 | 0.00 | 0.00 | 0.00 | 71 | 1015.9 |
| 20260903021159 | 84 | 312 | 0.0 | 2.0 | 0.00 | 0.00 | 0.00 | 71 | 1015.9 |
| 20260903021059 | 84 | 305 | 1.0 | 2.0 | 0.00 | 0.00 | 0.00 | 71 | 1015.9 |
| 20260903021003 | 84 | 289 | 0.0 | 2.0 | 0.00 | 0.00 | 0.00 | 71 | 1015.9 |
| 20260903020900 | 84 | 294 | 0.0 | 2.0 | 0.00 | 0.00 | 0.00 | 71 | 1015.8 |
| 20260903020800 | 84 | 290 | 0.0 | 2.0 | 0.00 | 0.00 | 0.00 | 71 | 1015.9 |
| 20260903020659 | 84 | 307 | 1.0 | 2.0 | 0.00 | 0.00 | 0.00 | 70 | 1015.8 |
| 20260903020559 | 84 | 316 | 2.0 | 2.0 | 0.00 | 0.00 | 0.00 | 70 | 1015.8 |
| 20260903020503 | 84 | 273 | 0.0 | 2.0 | 0.00 | 0.00 | 0.00 | 70 | 1015.8 |
| 20260903020200 | 84 | 273 | 0.0 | 2.0 | 0.00 | 0.00 | 0.00 | 70 | 1015.8 |
| 20260903020059 | 84 | 273 | 0.0 | 2.0 | 0.00 | 0.00 | 0.00 | 70 | 1015.9 |
| 20260903020003 | 84 | 296 | 0.0 | 2.0 | 0.00 | 0.00 | 0.00 | 70 | 1015.9 |
| 20260903015859 | 84 | 282 | 0.0 | 2.0 | 0.00 | 0.00 | 0.00 | 69 | 1015.9 |
| 20260903015759 | 84 | 282 | 0.0 | 2.0 | 0.00 | 0.00 | 0.00 | 69 | 1015.8 |
| 20260903015559 | 84 | 303 | 0.0 | 2.0 | 0.00 | 0.00 | 0.00 | 69 | 1015.8 |
| 20260903015502 | 84 | 303 | 0.0 | 2.0 | 0.00 | 0.00 | 0.00 | 69 | 1015.8 |
| 20260903015359 | 84 | 303 | 0.0 | 2.0 | 0.00 | 0.00 | 0.00 | 69 | 1015.8 |
| 20260903015259 | 85 | 303 | 0.0 | 2.0 | 0.00 | 0.00 | 0.00 | 69 | 1015.8 |
| 20260903015159 | 85 | 303 | 0.0 | 2.0 | 0.00 | 0.00 | 0.00 | 69 | 1015.9 |
| 20260903015059 | 85 | 303 | 0.0 | 2.0 | 0.00 | 0.00 | 0.00 | 69 | 1015.9 |
| 20260903015003 | 85 | 303 | 0.0 | 2.0 | 0.00 | 0.00 | 0.00 | 68 | 1015.9 |
| 20260903014859 | 85 | 303 | 0.0 | 2.0 | 0.00 | 0.00 | 0.00 | 68 | 1015.9 |
| 20260903014659 | 85 | 289 | 1.0 | 2.0 | 0.00 | 0.00 | 0.00 | 68 | 1015.9 |
| 20260903014601 | 85 | 288 | 0.0 | 2.0 | 0.00 | 0.00 | 0.00 | 68 | 1015.8 |
| 20260903014501 | 85 | 280 | 0.0 | 2.0 | 0.00 | 0.00 | 0.00 | 69 | 1015.8 |
| 20260903014059 | 85 | 323 | 0.0 | 2.0 | 0.00 | 0.00 | 0.00 | 68 | 1015.6 |
| 20260903014003 | 85 | 304 | 2.0 | 2.0 | 0.00 | 0.00 | 0.00 | 68 | 1015.6 |
| 20260903013900 | 85 | 328 | 0.0 | 2.0 | 0.00 | 0.00 | 0.00 | 68 | 1015.6 |
| 20260903013759 | 85 | 336 | 1.0 | 1.0 | 0.00 | 0.00 | 0.00 | 68 | 1015.7 |
| 20260903013659 | 85 | 328 | 0.0 | 1.0 | 0.00 | 0.00 | 0.00 | 68 | 1015.7 |
| 20260903013600 | 85 | 326 | 0.0 | 1.0 | 0.00 | 0.00 | 0.00 | 68 | 1015.6 |
| 20260903013501 | 85 | 311 | 0.0 | 1.0 | 0.00 | 0.00 | 0.00 | 68 | 1015.6 |
| 20260903013359 | 85 | 317 | 0.0 | 1.0 | 0.00 | 0.00 | 0.00 | 68 | 1015.7 |
| 20260903013259 | 85 | 317 | 0.0 | 1.0 | 0.00 | 0.00 | 0.00 | 68 | 1015.6 |
| 20260903013159 | 85 | 302 | 0.0 | 2.0 | 0.00 | 0.00 | 0.00 | 67 | 1015.7 |
| 20260903013059 | 85 | 324 | 0.0 | 2.0 | 0.00 | 0.00 | 0.00 | 67 | 1015.6 |
| 20260903013003 | 85 | 293 | 0.0 | 2.0 | 0.00 | 0.00 | 0.00 | 67 | 1015.6 |
| 20260903012859 | 85 | 293 | 0.0 | 2.0 | 0.00 | 0.00 | 0.00 | 67 | 1015.6 |
| 20260903012759 | 85 | 293 | 0.0 | 2.0 | 0.00 | 0.00 | 0.00 | 67 | 1015.6 |
| 20260903012658 | 85 | 293 | 0.0 | 2.0 | 0.00 | 0.00 | 0.00 | 67 | 1015.6 |
| 20260903012600 | 85 | 293 | 0.0 | 2.0 | 0.00 | 0.00 | 0.00 | 67 | 1015.6 |
| 20260903012400 | 85 | 295 | 0.0 | 2.0 | 0.00 | 0.00 | 0.00 | 67 | 1015.7 |
| 20260903011859 | 85 | 320 | 0.0 | 1.0 | 0.00 | 0.00 | 0.00 | 67 | 1015.7 |
| 20260903011759 | 85 | 320 | 0.0 | 1.0 | 0.00 | 0.00 | 0.00 | 67 | 1015.7 |
| 20260903011658 | 85 | 320 | 0.0 | 1.0 | 0.00 | 0.00 | 0.00 | 67 | 1015.7 |
| 20260903011600 | 85 | 320 | 0.0 | 1.0 | 0.00 | 0.00 | 0.00 | 67 | 1015.6 |
| 20260903011501 | 85 | 321 | 1.0 | 1.0 | 0.00 | 0.00 | 0.00 | 67 | 1015.7 |
| 20260903011401 | 85 | 314 | 0.0 | 1.0 | 0.00 | 0.00 | 0.00 | 67 | 1015.7 |
| 20260903011259 | 85 | 294 | 0.0 | 1.0 | 0.00 | 0.00 | 0.00 | 67 | 1015.7 |
| 20260903011200 | 85 | 331 | 0.0 | 0.0 | 0.00 | 0.00 | 0.00 | 67 | 1015.7 |
| 20260903011003 | 85 | 314 | 0.0 | 0.0 | 0.00 | 0.00 | 0.00 | 66 | 1015.6 |
| 20260903010859 | 86 | 314 | 0.0 | 0.0 | 0.00 | 0.00 | 0.00 | 66 | 1015.6 |
| 20260903010800 | 86 | 314 | 0.0 | 0.0 | 0.00 | 0.00 | 0.00 | 66 | 1015.6 |
| 20260903010700 | 86 | 314 | 0.0 | 1.0 | 0.00 | 0.00 | 0.00 | 66 | 1015.6 |
| 20260903010559 | 86 | 314 | 0.0 | 1.0 | 0.00 | 0.00 | 0.00 | 66 | 1015.6 |
| 20260903010359 | 86 | 314 | 0.0 | 1.0 | 0.00 | 0.00 | 0.00 | 66 | 1015.6 |
| 20260903010259 | 86 | 314 | 0.0 | 1.0 | 0.00 | 0.00 | 0.00 | 66 | 1015.6 |
| 20260903010003 | 86 | 295 | 0.0 | 1.0 | 0.00 | 0.00 | 0.00 | 66 | 1015.6 |
| 20260903005858 | 86 | 298 | 0.0 | 1.0 | 0.00 | 0.00 | 0.00 | 65 | 1015.6 |
| 20260903005658 | 86 | 296 | 0.0 | 1.0 | 0.00 | 0.00 | 0.00 | 65 | 1015.6 |
| 20260903005559 | 86 | 297 | 0.0 | 1.0 | 0.00 | 0.00 | 0.00 | 65 | 1015.7 |
| 20260903005459 | 86 | 308 | 0.0 | 1.0 | 0.00 | 0.00 | 0.00 | 65 | 1015.6 |
| 20260903005358 | 86 | 309 | 0.0 | 1.0 | 0.00 | 0.00 | 0.00 | 65 | 1015.6 |
| 20260903005258 | 86 | 311 | 0.0 | 0.0 | 0.00 | 0.00 | 0.00 | 65 | 1015.6 |
| 20260903005158 | 86 | 311 | 0.0 | 0.0 | 0.00 | 0.00 | 0.00 | 65 | 1015.6 |
| 20260903005059 | 86 | 311 | 0.0 | 0.0 | 0.00 | 0.00 | 0.00 | 65 | 1015.6 |
| 20260903005003 | 86 | 330 | 0.0 | 1.0 | 0.00 | 0.00 | 0.00 | 65 | 1015.6 |
| 20260903004857 | 86 | 330 | 0.0 | 1.0 | 0.00 | 0.00 | 0.00 | 65 | 1015.6 |
| 20260903004658 | 86 | 330 | 0.0 | 1.0 | 0.00 | 0.00 | 0.00 | 64 | 1015.6 |
| 20260903004600 | 86 | 330 | 0.0 | 1.0 | 0.00 | 0.00 | 0.00 | 64 | 1015.6 |
| 20260903004459 | 86 | 330 | 0.0 | 1.0 | 0.00 | 0.00 | 0.00 | 64 | 1015.6 |
| 20260903004359 | 87 | 330 | 0.0 | 1.0 | 0.00 | 0.00 | 0.00 | 64 | 1015.6 |
| 20260903004258 | 87 | 330 | 0.0 | 1.0 | 0.00 | 0.00 | 0.00 | 64 | 1015.6 |
| 20260903004059 | 87 | 299 | 0.0 | 1.0 | 0.00 | 0.00 | 0.00 | 64 | 1015.5 |
| 20260903003858 | 87 | 303 | 0.0 | 1.0 | 0.00 | 0.00 | 0.00 | 64 | 1015.5 |
| 20260903003759 | 87 | 303 | 0.0 | 1.0 | 0.00 | 0.00 | 0.00 | 63 | 1015.4 |
| 20260903003658 | 87 | 303 | 0.0 | 1.0 | 0.00 | 0.00 | 0.00 | 63 | 1015.5 |
| 20260903003559 | 87 | 305 | 0.0 | 1.0 | 0.00 | 0.00 | 0.00 | 63 | 1015.5 |
| 20260903003459 | 87 | 305 | 0.0 | 1.0 | 0.00 | 0.00 | 0.00 | 63 | 1015.6 |
| 20260903003358 | 87 | 305 | 0.0 | 1.0 | 0.00 | 0.00 | 0.00 | 63 | 1015.6 |
| 20260903003259 | 87 | 305 | 0.0 | 1.0 | 0.00 | 0.00 | 0.00 | 63 | 1015.5 |
| 20260903003159 | 87 | 312 | 0.0 | 1.0 | 0.00 | 0.00 | 0.00 | 63 | 1015.5 |
| 20260903003003 | 87 | 352 | 0.0 | 1.0 | 0.00 | 0.00 | 0.00 | 63 | 1015.6 |
| 20260903002858 | 87 | 331 | 0.0 | 1.0 | 0.00 | 0.00 | 0.00 | 63 | 1015.6 |
| 20260903002757 | 87 | 331 | 0.0 | 1.0 | 0.00 | 0.00 | 0.00 | 63 | 1015.6 |
| 20260903002659 | 87 | 331 | 0.0 | 1.0 | 0.00 | 0.00 | 0.00 | 63 | 1015.6 |
| 20260903002558 | 87 | 309 | 0.0 | 1.0 | 0.00 | 0.00 | 0.00 | 63 | 1015.6 |
| 20260903002500 | 87 | 304 | 0.0 | 1.0 | 0.00 | 0.00 | 0.00 | 63 | 1015.6 |
| 20260903002357 | 87 | 314 | 0.0 | 1.0 | 0.00 | 0.00 | 0.00 | 63 | 1015.6 |
| 20260903002259 | 87 | 343 | 0.0 | 2.0 | 0.00 | 0.00 | 0.00 | 63 | 1015.5 |
| 20260903002158 | 87 | 315 | 0.0 | 2.0 | 0.00 | 0.00 | 0.00 | 63 | 1015.6 |
| 20260903002058 | 87 | 323 | 0.0 | 3.0 | 0.00 | 0.00 | 0.00 | 63 | 1015.5 |
| 20260903002003 | 87 | 343 | 0.0 | 3.0 | 0.00 | 0.00 | 0.00 | 62 | 1015.5 |
| 20260903001859 | 88 | 354 | 0.0 | 3.0 | 0.00 | 0.00 | 0.00 | 62 | 1015.5 |
| 20260903001758 | 88 | 355 | 0.0 | 3.0 | 0.00 | 0.00 | 0.00 | 62 | 1015.5 |
| 20260903001658 | 88 | 356 | 0.0 | 3.0 | 0.00 | 0.00 | 0.00 | 62 | 1015.5 |
| 20260903001558 | 88 | 335 | 0.0 | 3.0 | 0.00 | 0.00 | 0.00 | 62 | 1015.5 |
| 20260903001500 | 88 | 350 | 0.0 | 3.0 | 0.00 | 0.00 | 0.00 | 62 | 1015.4 |
| 20260903001358 | 88 | 330 | 0.0 | 3.0 | 0.00 | 0.00 | 0.00 | 62 | 1015.5 |
| 20260903001258 | 88 | 324 | 0.0 | 3.0 | 0.00 | 0.00 | 0.00 | 62 | 1015.5 |
| 20260903001159 | 88 | 359 | 0.0 | 3.0 | 0.00 | 0.00 | 0.00 | 62 | 1015.5 |
| 20260903001058 | 88 | 324 | 0.0 | 3.0 | 0.00 | 0.00 | 0.00 | 62 | 1015.4 |
| 20260903001003 | 88 | 324 | 0.0 | 3.0 | 0.00 | 0.00 | 0.00 | 62 | 1015.4 |
| 20260903000858 | 88 | 326 | 0.0 | 3.0 | 0.00 | 0.00 | 0.00 | 62 | 1015.5 |
| 20260903000759 | 88 | 347 | 0.0 | 3.0 | 0.00 | 0.00 | 0.00 | 62 | 1015.5 |
| 20260903000658 | 88 | 333 | 0.0 | 3.0 | 0.00 | 0.00 | 0.00 | 61 | 1015.4 |
| 20260903000459 | 88 | 62 | 1.0 | 3.0 | 0.00 | 0.00 | 0.00 | 61 | 1015.3 |
| 20260903000357 | 88 | 335 | 0.0 | 3.0 | 0.00 | 0.00 | 0.00 | 61 | 1015.3 |
| 20260903000257 | 88 | 308 | 0.0 | 3.0 | 0.00 | 0.00 | 0.00 | 61 | 1015.4 |
| 20260903000159 | 88 | 334 | 0.0 | 3.0 | 0.00 | 0.00 | 0.00 | 61 | 1015.4 |
| 20260903000059 | 88 | 360 | 2.0 | 3.0 | 0.00 | 0.00 | 0.00 | 61 | 1015.4 |
| 20260902235859 | 88 | 77 | 0.0 | 3.0 | 0.00 | 0.00 | 0.00 | 61 | 1015.4 |
| 20260902235757 | 88 | 8 | 0.0 | 3.0 | 0.00 | 0.00 | 0.00 | 61 | 1015.4 |
| 20260902235658 | 88 | 345 | 0.0 | 3.0 | 0.00 | 0.00 | 0.00 | 61 | 1015.4 |
| 20260902235558 | 88 | 360 | 0.0 | 3.0 | 0.00 | 0.00 | 0.00 | 60 | 1015.4 |
| 20260902235500 | 88 | 338 | 1.0 | 3.0 | 0.00 | 0.00 | 0.00 | 60 | 1015.4 |
| 20260902235359 | 89 | 36 | 2.0 | 3.0 | 0.00 | 0.00 | 0.00 | 60 | 1015.4 |
| 20260902235258 | 89 | 13 | 0.0 | 3.0 | 0.00 | 0.00 | 0.00 | 60 | 1015.4 |
| 20260902235158 | 89 | 347 | 2.0 | 3.0 | 0.00 | 0.00 | 0.00 | 60 | 1015.4 |
| 20260902235058 | 89 | 62 | 2.0 | 3.0 | 0.00 | 0.00 | 0.00 | 60 | 1015.4 |
| 20260902235002 | 89 | 360 | 3.0 | 3.0 | 0.00 | 0.00 | 0.00 | 60 | 1015.3 |
| 20260902234858 | 89 | 13 | 2.0 | 3.0 | 0.00 | 0.00 | 0.00 | 60 | 1015.4 |
| 20260902234758 | 89 | 22 | 1.0 | 3.0 | 0.00 | 0.00 | 0.00 | 60 | 1015.3 |
| 20260902234658 | 89 | 13 | 3.0 | 3.0 | 0.00 | 0.00 | 0.00 | 60 | 1015.3 |
| 20260902234559 | 89 | 26 | 0.0 | 3.0 | 0.00 | 0.00 | 0.00 | 60 | 1015.3 |
| 20260902234459 | 89 | 29 | 0.0 | 3.0 | 0.00 | 0.00 | 0.00 | 59 | 1015.3 |
| 20260902234358 | 89 | 6 | 1.0 | 3.0 | 0.00 | 0.00 | 0.00 | 59 | 1015.2 |
| 20260902234258 | 89 | 121 | 0.0 | 3.0 | 0.00 | 0.00 | 0.00 | 59 | 1015.2 |
| 20260902234158 | 89 | 341 | 1.0 | 3.0 | 0.00 | 0.00 | 0.00 | 59 | 1015.2 |
| 20260902234000 | 89 | 340 | 2.0 | 4.0 | 0.00 | 0.00 | 0.00 | 59 | 1015.3 |
| 20260902233858 | 89 | 15 | 1.0 | 4.0 | 0.00 | 0.00 | 0.00 | 59 | 1015.2 |
| 20260902233659 | 89 | 326 | 0.0 | 4.0 | 0.00 | 0.00 | 0.00 | 59 | 1015.2 |
| 20260902233559 | 89 | 3 | 1.0 | 5.0 | 0.00 | 0.00 | 0.00 | 59 | 1015.1 |
| 20260902233500 | 89 | 355 | 0.0 | 5.0 | 0.00 | 0.00 | 0.00 | 59 | 1015.2 |
| 20260902233358 | 89 | 8 | 3.0 | 5.0 | 0.00 | 0.00 | 0.00 | 59 | 1015.1 |
| 20260902233258 | 89 | 11 | 1.0 | 5.0 | 0.00 | 0.00 | 0.00 | 58 | 1015.2 |
| 20260902233157 | 89 | 347 | 1.0 | 5.0 | 0.00 | 0.00 | 0.00 | 58 | 1015.2 |
| 20260902233059 | 89 | 34 | 1.0 | 5.0 | 0.00 | 0.00 | 0.00 | 58 | 1015.1 |
| 20260902233003 | 89 | 17 | 2.0 | 5.0 | 0.00 | 0.00 | 0.00 | 58 | 1015.2 |
| 20260902232858 | 90 | 56 | 0.0 | 5.0 | 0.00 | 0.00 | 0.00 | 58 | 1015.2 |
| 20260902232758 | 90 | 26 | 4.0 | 5.0 | 0.00 | 0.00 | 0.00 | 58 | 1015.2 |
| 20260902232659 | 90 | 350 | 1.0 | 3.0 | 0.00 | 0.00 | 0.00 | 58 | 1015.2 |
| 20260902232558 | 90 | 27 | 0.0 | 3.0 | 0.00 | 0.00 | 0.00 | 58 | 1015.1 |
| 20260902232458 | 90 | 70 | 3.0 | 3.0 | 0.00 | 0.00 | 0.00 | 58 | 1015.1 |
| 20260902232358 | 90 | 336 | 0.0 | 3.0 | 0.00 | 0.00 | 0.00 | 57 | 1015.2 |
| 20260902232259 | 90 | 37 | 0.0 | 3.0 | 0.00 | 0.00 | 0.00 | 58 | 1015.2 |
| 20260902232059 | 90 | 23 | 2.0 | 3.0 | 0.00 | 0.00 | 0.00 | 57 | 1015.1 |
| 20260902232003 | 90 | 317 | 0.0 | 4.0 | 0.00 | 0.00 | 0.00 | 57 | 1015.0 |
| 20260902231858 | 90 | 319 | 1.0 | 4.0 | 0.00 | 0.00 | 0.00 | 57 | 1015.0 |
| 20260902231758 | 90 | 5 | 1.0 | 4.0 | 0.00 | 0.00 | 0.00 | 57 | 1015.0 |
| 20260902231659 | 90 | 348 | 0.0 | 4.0 | 0.00 | 0.00 | 0.00 | 57 | 1015.1 |
| 20260902231558 | 90 | 341 | 0.0 | 4.0 | 0.00 | 0.00 | 0.00 | 57 | 1015.0 |
| 20260902231459 | 90 | 342 | 1.0 | 4.0 | 0.00 | 0.00 | 0.00 | 57 | 1015.0 |
| 20260902231358 | 90 | 46 | 3.0 | 4.0 | 0.00 | 0.00 | 0.00 | 57 | 1015.0 |
| 20260902231259 | 90 | 12 | 1.0 | 4.0 | 0.00 | 0.00 | 0.00 | 57 | 1015.0 |
| 20260902231158 | 90 | 335 | 0.0 | 4.0 | 0.00 | 0.00 | 0.00 | 57 | 1015.0 |
| 20260902231058 | 90 | 38 | 1.0 | 4.0 | 0.00 | 0.00 | 0.00 | 57 | 1015.0 |
| 20260902231002 | 90 | 137 | 0.0 | 5.0 | 0.00 | 0.00 | 0.00 | 57 | 1015.0 |
| 20260902230858 | 90 | 146 | 0.0 | 5.0 | 0.00 | 0.00 | 0.00 | 56 | 1015.0 |
| 20260902230758 | 90 | 39 | 2.0 | 5.0 | 0.00 | 0.00 | 0.00 | 56 | 1015.1 |
| 20260902230658 | 90 | 4 | 3.0 | 5.0 | 0.00 | 0.00 | 0.00 | 57 | 1015.1 |
| 20260902230558 | 90 | 1 | 2.0 | 5.0 | 0.00 | 0.00 | 0.00 | 57 | 1015.2 |
| 20260902230359 | 90 | 8 | 1.0 | 6.0 | 0.00 | 0.00 | 0.00 | 56 | 1015.1 |
| 20260902230259 | 90 | 136 | 0.0 | 6.0 | 0.00 | 0.00 | 0.00 | 56 | 1015.1 |
| 20260902230158 | 90 | 336 | 0.0 | 6.0 | 0.00 | 0.00 | 0.00 | 56 | 1015.2 |
| 20260902230058 | 90 | 58 | 0.0 | 6.0 | 0.00 | 0.00 | 0.00 | 56 | 1015.0 |
| 20260902230002 | 90 | 50 | 0.0 | 6.0 | 0.00 | 0.00 | 0.00 | 56 | 1015.0 |
| 20260902225858 | 91 | 26 | 3.0 | 6.0 | 0.00 | 0.00 | 0.00 | 56 | 1015.0 |
| 20260902225758 | 91 | 15 | 1.0 | 6.0 | 0.00 | 0.00 | 0.00 | 56 | 1015.0 |
| 20260902225658 | 91 | 45 | 2.0 | 6.0 | 0.00 | 0.00 | 0.00 | 56 | 1015.0 |
| 20260902225558 | 91 | 70 | 2.0 | 6.0 | 0.00 | 0.00 | 0.00 | 55 | 1015.0 |
| 20260902225500 | 91 | 61 | 2.0 | 7.0 | 0.00 | 0.00 | 0.00 | 56 | 1015.0 |
| 20260902225258 | 91 | 27 | 3.0 | 7.0 | 0.00 | 0.00 | 0.00 | 55 | 1015.0 |
| 20260902225157 | 91 | 25 | 2.0 | 7.0 | 0.00 | 0.00 | 0.00 | 55 | 1014.9 |
| 20260902225059 | 91 | 23 | 3.0 | 7.0 | 0.00 | 0.00 | 0.00 | 55 | 1015.0 |
| 20260902225002 | 91 | 44 | 3.0 | 7.0 | 0.00 | 0.00 | 0.00 | 55 | 1014.8 |
| 20260902224858 | 91 | 283 | 3.0 | 7.0 | 0.00 | 0.00 | 0.00 | 55 | 1014.9 |
| 20260902224759 | 91 | 63 | 3.0 | 7.0 | 0.00 | 0.00 | 0.00 | 55 | 1014.9 |
| 20260902224658 | 91 | 17 | 3.0 | 7.0 | 0.00 | 0.00 | 0.00 | 55 | 1014.9 |
| 20260902224558 | 91 | 330 | 2.0 | 6.0 | 0.00 | 0.00 | 0.00 | 55 | 1014.9 |
| 20260902224501 | 92 | 356 | 3.0 | 6.0 | 0.00 | 0.00 | 0.00 | 55 | 1015.0 |
| 20260902224358 | 92 | 350 | 3.0 | 6.0 | 0.00 | 0.00 | 0.00 | 54 | 1015.0 |
| 20260902224258 | 92 | 349 | 4.0 | 6.0 | 0.00 | 0.00 | 0.00 | 55 | 1015.0 |
| 20260902224057 | 92 | 338 | 4.0 | 6.0 | 0.00 | 0.00 | 0.00 | 54 | 1015.1 |
| 20260902224000 | 92 | 10 | 3.0 | 6.0 | 0.00 | 0.00 | 0.00 | 55 | 1015.0 |
| 20260902223759 | 92 | 55 | 2.0 | 6.0 | 0.00 | 0.00 | 0.00 | 55 | 1015.0 |
| 20260902223658 | 92 | 4 | 3.0 | 6.0 | 0.00 | 0.00 | 0.00 | 55 | 1015.0 |
| 20260902223559 | 92 | 336 | 4.0 | 8.0 | 0.00 | 0.00 | 0.00 | 55 | 1015.0 |
| 20260902223500 | 92 | 27 | 2.0 | 8.0 | 0.00 | 0.00 | 0.00 | 54 | 1015.1 |
| 20260902223358 | 92 | 320 | 0.0 | 8.0 | 0.00 | 0.00 | 0.00 | 54 | 1015.1 |
| 20260902223259 | 92 | 15 | 3.0 | 8.0 | 0.00 | 0.00 | 0.00 | 54 | 1015.1 |
| 20260902223158 | 92 | 60 | 4.0 | 8.0 | 0.00 | 0.00 | 0.00 | 54 | 1015.1 |
| 20260902223058 | 92 | 10 | 5.0 | 8.0 | 0.00 | 0.00 | 0.00 | 54 | 1015.1 |
| 20260902223003 | 92 | 67 | 3.0 | 8.0 | 0.00 | 0.00 | 0.00 | 54 | 1015.0 |
| 20260902222758 | 92 | 17 | 3.0 | 8.0 | 0.00 | 0.00 | 0.00 | 54 | 1015.0 |
| 20260902222658 | 92 | 27 | 6.0 | 8.0 | 0.00 | 0.00 | 0.00 | 54 | 1015.0 |
| 20260902222558 | 92 | 22 | 4.0 | 7.0 | 0.00 | 0.00 | 0.00 | 54 | 1015.0 |
| 20260902222459 | 92 | 273 | 2.0 | 6.0 | 0.00 | 0.00 | 0.00 | 54 | 1014.9 |
| 20260902222358 | 92 | 15 | 5.0 | 6.0 | 0.00 | 0.00 | 0.00 | 54 | 1015.0 |
| 20260902222258 | 92 | 342 | 3.0 | 6.0 | 0.00 | 0.00 | 0.00 | 54 | 1015.0 |
| 20260902222158 | 92 | 24 | 4.0 | 6.0 | 0.00 | 0.00 | 0.00 | 54 | 1015.0 |
| 20260902222000 | 92 | 15 | 6.0 | 6.0 | 0.00 | 0.00 | 0.00 | 54 | 1015.0 |
| 20260902221758 | 92 | 23 | 4.0 | 6.0 | 0.00 | 0.00 | 0.00 | 55 | 1015.0 |
| 20260902221658 | 92 | 359 | 3.0 | 6.0 | 0.00 | 0.00 | 0.00 | 55 | 1015.0 |
| 20260902221558 | 92 | 18 | 4.0 | 6.0 | 0.00 | 0.00 | 0.00 | 54 | 1015.0 |
| 20260902221501 | 92 | 34 | 3.0 | 6.0 | 0.00 | 0.00 | 0.00 | 54 | 1015.0 |
| 20260902221358 | 92 | 15 | 4.0 | 6.0 | 0.00 | 0.00 | 0.00 | 54 | 1015.0 |
| 20260902221258 | 92 | 23 | 4.0 | 6.0 | 0.00 | 0.00 | 0.00 | 54 | 1015.1 |
| 20260902221158 | 92 | 114 | 2.0 | 6.0 | 0.00 | 0.00 | 0.00 | 54 | 1015.0 |
| 20260902221059 | 92 | 8 | 4.0 | 6.0 | 0.00 | 0.00 | 0.00 | 54 | 1015.1 |
| 20260902221003 | 92 | 360 | 2.0 | 6.0 | 0.00 | 0.00 | 0.00 | 54 | 1015.0 |
| 20260902220859 | 92 | 57 | 3.0 | 6.0 | 0.00 | 0.00 | 0.00 | 54 | 1015.1 |
| 20260902220758 | 92 | 53 | 3.0 | 6.0 | 0.00 | 0.00 | 0.00 | 54 | 1015.1 |
| 20260902220658 | 92 | 353 | 2.0 | 6.0 | 0.00 | 0.00 | 0.00 | 53 | 1015.0 |
| 20260902220557 | 92 | 5 | 4.0 | 5.0 | 0.00 | 0.00 | 0.00 | 53 | 1015.0 |
| 20260902220359 | 92 | 10 | 4.0 | 5.0 | 0.00 | 0.00 | 0.00 | 53 | 1015.0 |
| 20260902220259 | 92 | 122 | 3.0 | 6.0 | 0.00 | 0.00 | 0.00 | 53 | 1015.0 |
| 20260902220159 | 92 | 1 | 0.0 | 6.0 | 0.00 | 0.00 | 0.00 | 53 | 1015.0 |
| 20260902220058 | 92 | 359 | 3.0 | 6.0 | 0.00 | 0.00 | 0.00 | 53 | 1015.1 |
| 20260902220000 | 92 | 359 | 4.0 | 6.0 | 0.00 | 0.00 | 0.00 | 53 | 1015.1 |
| 20260902215759 | 92 | 6 | 2.0 | 6.0 | 0.00 | 0.00 | 0.00 | 53 | 1015.2 |
| 20260902215659 | 92 | 359 | 4.0 | 6.0 | 0.00 | 0.00 | 0.00 | 53 | 1015.1 |
| 20260902215558 | 92 | 1 | 4.0 | 6.0 | 0.00 | 0.00 | 0.00 | 52 | 1015.2 |
| 20260902215459 | 92 | 27 | 3.0 | 6.0 | 0.00 | 0.00 | 0.00 | 52 | 1015.2 |
| 20260902215259 | 93 | 22 | 4.0 | 6.0 | 0.00 | 0.00 | 0.00 | 52 | 1015.2 |
| 20260902215158 | 93 | 356 | 4.0 | 6.0 | 0.00 | 0.00 | 0.00 | 52 | 1015.2 |
| 20260902215002 | 93 | 39 | 4.0 | 6.0 | 0.00 | 0.00 | 0.00 | 52 | 1015.1 |
| 20260902214858 | 93 | 350 | 2.0 | 6.0 | 0.00 | 0.00 | 0.00 | 51 | 1015.2 |
| 20260902214758 | 93 | 24 | 1.0 | 6.0 | 0.00 | 0.00 | 0.00 | 52 | 1015.2 |
| 20260902214659 | 93 | 13 | 4.0 | 6.0 | 0.00 | 0.00 | 0.00 | 51 | 1015.2 |
| 20260902214459 | 93 | 75 | 2.0 | 8.0 | 0.00 | 0.00 | 0.00 | 51 | 1015.2 |
| 20260902214358 | 93 | 360 | 5.0 | 8.0 | 0.00 | 0.00 | 0.00 | 51 | 1015.2 |
| 20260902214159 | 93 | 330 | 2.0 | 8.0 | 0.00 | 0.00 | 0.00 | 51 | 1015.2 |
| 20260902214059 | 93 | 34 | 0.0 | 8.0 | 0.00 | 0.00 | 0.00 | 51 | 1015.1 |
| 20260902214002 | 93 | 345 | 4.0 | 8.0 | 0.00 | 0.00 | 0.00 | 50 | 1015.2 |
| 20260902213858 | 94 | 15 | 3.0 | 8.0 | 0.00 | 0.00 | 0.00 | 50 | 1015.2 |
| 20260902213758 | 94 | 8 | 2.0 | 8.0 | 0.00 | 0.00 | 0.00 | 50 | 1015.2 |
| 20260902213659 | 94 | 316 | 1.0 | 8.0 | 0.00 | 0.00 | 0.00 | 49 | 1015.1 |
| 20260902213558 | 94 | 17 | 7.0 | 8.0 | 0.00 | 0.00 | 0.00 | 49 | 1015.2 |
| 20260902213459 | 94 | 343 | 4.0 | 8.0 | 0.00 | 0.00 | 0.00 | 49 | 1015.2 |
| 20260902213358 | 95 | 348 | 3.0 | 8.0 | 0.00 | 0.00 | 0.00 | 48 | 1015.2 |
| 20260902213258 | 95 | 6 | 4.0 | 8.0 | 0.00 | 0.00 | 0.00 | 48 | 1015.2 |
| 20260902213159 | 95 | 339 | 4.0 | 8.0 | 0.00 | 0.00 | 0.00 | 48 | 1015.3 |
| 20260902213058 | 95 | 26 | 4.0 | 8.0 | 0.00 | 0.00 | 0.00 | 48 | 1015.2 |
| 20260902213002 | 95 | 347 | 2.0 | 8.0 | 0.00 | 0.00 | 0.00 | 48 | 1015.3 |
| 20260902212858 | 95 | 340 | 4.0 | 8.0 | 0.00 | 0.00 | 0.00 | 48 | 1015.2 |
| 20260902212758 | 95 | 11 | 3.0 | 8.0 | 0.00 | 0.00 | 0.00 | 48 | 1015.2 |
| 20260902212658 | 95 | 5 | 7.0 | 8.0 | 0.00 | 0.00 | 0.00 | 47 | 1015.3 |
| 20260902212559 | 95 | 357 | 6.0 | 8.0 | 0.00 | 0.00 | 0.00 | 47 | 1015.4 |
| 20260902212259 | 96 | 71 | 5.0 | 7.0 | 0.00 | 0.00 | 0.00 | 48 | 1015.3 |
| 20260902212158 | 96 | 348 | 3.0 | 7.0 | 0.00 | 0.00 | 0.00 | 48 | 1015.3 |
| 20260902212003 | 95 | 358 | 4.0 | 7.0 | 0.00 | 0.00 | 0.00 | 48 | 1015.3 |
| 20260902211858 | 95 | 353 | 3.0 | 7.0 | 0.00 | 0.00 | 0.00 | 47 | 1015.3 |
| 20260902211759 | 95 | 46 | 2.0 | 7.0 | 0.00 | 0.00 | 0.00 | 47 | 1015.2 |
| 20260902211559 | 95 | 13 | 4.0 | 7.0 | 0.00 | 0.00 | 0.00 | 48 | 1015.2 |
| 20260902211459 | 95 | 38 | 3.0 | 7.0 | 0.00 | 0.00 | 0.00 | 47 | 1015.2 |
| 20260902211359 | 95 | 22 | 2.0 | 7.0 | 0.00 | 0.00 | 0.00 | 47 | 1015.2 |
| 20260902211158 | 95 | 49 | 4.0 | 7.0 | 0.00 | 0.00 | 0.00 | 48 | 1015.2 |
| 20260902211001 | 94 | 84 | 5.0 | 7.0 | 0.00 | 0.00 | 0.00 | 48 | 1015.2 |
| 20260902210858 | 94 | 351 | 4.0 | 7.0 | 0.00 | 0.00 | 0.00 | 48 | 1015.2 |
| 20260902210758 | 94 | 15 | 3.0 | 8.0 | 0.00 | 0.00 | 0.00 | 49 | 1015.2 |
| 20260902210659 | 94 | 355 | 3.0 | 11.0 | 0.00 | 0.00 | 0.00 | 50 | 1015.2 |
| 20260902210459 | 94 | 355 | 4.0 | 11.0 | 0.00 | 0.00 | 0.00 | 49 | 1015.3 |
| 20260902210359 | 94 | 306 | 2.0 | 11.0 | 0.00 | 0.00 | 0.00 | 49 | 1015.3 |
| 20260902210258 | 94 | 330 | 2.0 | 11.0 | 0.00 | 0.00 | 0.00 | 48 | 1015.4 |
| 20260902210158 | 94 | 341 | 4.0 | 11.0 | 0.00 | 0.00 | 0.00 | 48 | 1015.3 |
| 20260902210003 | 95 | 53 | 5.0 | 11.0 | 0.00 | 0.00 | 0.00 | 49 | 1015.3 |
| 20260902205757 | 95 | 34 | 5.0 | 9.0 | 0.00 | 0.00 | 0.00 | 47 | 1015.4 |
| 20260902205658 | 95 | 22 | 4.0 | 9.0 | 0.00 | 0.00 | 0.00 | 47 | 1015.4 |
| 20260902205558 | 96 | 83 | 2.0 | 9.0 | 0.00 | 0.00 | 0.00 | 47 | 1015.3 |
| 20260902205358 | 96 | 29 | 1.0 | 9.0 | 0.00 | 0.00 | 0.00 | 47 | 1015.4 |
| 20260902205258 | 96 | 359 | 3.0 | 9.0 | 0.00 | 0.00 | 0.00 | 46 | 1015.4 |
| 20260902205158 | 96 | 3 | 6.0 | 9.0 | 0.00 | 0.00 | 0.00 | 46 | 1015.4 |
| 20260902205058 | 96 | 4 | 6.0 | 8.0 | 0.00 | 0.00 | 0.00 | 46 | 1015.3 |
| 20260902205002 | 96 | 1 | 7.0 | 8.0 | 0.00 | 0.00 | 0.00 | 46 | 1015.4 |
| 20260902204859 | 96 | 11 | 7.0 | 8.0 | 0.00 | 0.00 | 0.00 | 45 | 1015.4 |
| 20260902204758 | 96 | 61 | 2.0 | 8.0 | 0.00 | 0.00 | 0.00 | 45 | 1015.4 |
| 20260902204657 | 96 | 354 | 4.0 | 8.0 | 0.00 | 0.00 | 0.00 | 45 | 1015.4 |
| 20260902204558 | 96 | 73 | 5.0 | 8.0 | 0.00 | 0.00 | 0.00 | 45 | 1015.4 |
| 20260902204459 | 97 | 45 | 4.0 | 8.0 | 0.00 | 0.00 | 0.00 | 45 | 1015.5 |
| 20260902204358 | 97 | 72 | 3.0 | 8.0 | 0.00 | 0.00 | 0.00 | 45 | 1015.4 |
| 20260902204259 | 97 | 37 | 4.0 | 9.0 | 0.00 | 0.00 | 0.00 | 46 | 1015.3 |
| 20260902204158 | 96 | 8 | 4.0 | 9.0 | 0.00 | 0.00 | 0.00 | 46 | 1015.4 |
| 20260902204059 | 96 | 67 | 3.0 | 9.0 | 0.00 | 0.00 | 0.00 | 46 | 1015.3 |
| 20260902204003 | 96 | 26 | 3.0 | 9.0 | 0.00 | 0.00 | 0.00 | 46 | 1015.4 |
| 20260902203858 | 96 | 41 | 3.0 | 9.0 | 0.00 | 0.00 | 0.00 | 47 | 1015.4 |
| 20260902203657 | 96 | 38 | 0.0 | 9.0 | 0.00 | 0.00 | 0.00 | 46 | 1015.3 |
| 20260902203559 | 96 | 348 | 3.0 | 9.0 | 0.00 | 0.00 | 0.00 | 47 | 1015.4 |
| 20260902203500 | 96 | 25 | 3.0 | 9.0 | 0.00 | 0.00 | 0.00 | 46 | 1015.5 |
| 20260902203358 | 96 | 18 | 3.0 | 8.0 | 0.00 | 0.00 | 0.00 | 47 | 1015.4 |
| 20260902203259 | 96 | 63 | 3.0 | 8.0 | 0.00 | 0.00 | 0.00 | 46 | 1015.5 |
| 20260902203158 | 96 | 29 | 5.0 | 8.0 | 0.00 | 0.00 | 0.00 | 46 | 1015.5 |
| 20260902203058 | 97 | 5 | 5.0 | 8.0 | 0.00 | 0.00 | 0.00 | 46 | 1015.4 |
| 20260902203002 | 97 | 27 | 5.0 | 8.0 | 0.00 | 0.00 | 0.00 | 46 | 1015.5 |
| 20260902202858 | 97 | 360 | 5.0 | 8.0 | 0.00 | 0.00 | 0.00 | 45 | 1015.4 |
| 20260902202758 | 97 | 6 | 6.0 | 8.0 | 0.00 | 0.00 | 0.00 | 45 | 1015.4 |
| 20260902202658 | 97 | 323 | 3.0 | 8.0 | 0.00 | 0.00 | 0.00 | 44 | 1015.5 |
| 20260902202558 | 97 | 17 | 3.0 | 8.0 | 0.00 | 0.00 | 0.00 | 43 | 1015.5 |
| 20260902202500 | 97 | 25 | 2.0 | 8.0 | 0.00 | 0.00 | 0.00 | 44 | 1015.5 |
| 20260902202359 | 97 | 15 | 4.0 | 8.0 | 0.00 | 0.00 | 0.00 | 44 | 1015.5 |
| 20260902202258 | 97 | 3 | 6.0 | 8.0 | 0.00 | 0.00 | 0.00 | 45 | 1015.5 |
| 20260902202159 | 97 | 15 | 7.0 | 8.0 | 0.00 | 0.00 | 0.00 | 46 | 1015.5 |
| 20260902202058 | 97 | 13 | 8.0 | 8.0 | 0.00 | 0.00 | 0.00 | 45 | 1015.5 |
| 20260902202000 | 97 | 350 | 4.0 | 8.0 | 0.00 | 0.00 | 0.00 | 45 | 1015.5 |
| 20260902201858 | 96 | 354 | 5.0 | 8.0 | 0.00 | 0.00 | 0.00 | 46 | 1015.5 |
| 20260902201758 | 96 | 332 | 5.0 | 8.0 | 0.00 | 0.00 | 0.00 | 45 | 1015.5 |
| 20260902201659 | 96 | 316 | 3.0 | 8.0 | 0.00 | 0.00 | 0.00 | 45 | 1015.6 |
| 20260902201558 | 96 | 334 | 4.0 | 8.0 | 0.00 | 0.00 | 0.00 | 45 | 1015.5 |
| 20260902201459 | 96 | 337 | 5.0 | 8.0 | 0.00 | 0.00 | 0.00 | 46 | 1015.6 |
| 20260902201358 | 96 | 344 | 4.0 | 8.0 | 0.00 | 0.00 | 0.00 | 45 | 1015.5 |
| 20260902201258 | 96 | 13 | 8.0 | 8.0 | 0.00 | 0.00 | 0.00 | 45 | 1015.6 |
| 20260902201057 | 97 | 358 | 4.0 | 8.0 | 0.00 | 0.00 | 0.00 | 45 | 1015.6 |
| 20260902201002 | 97 | 22 | 4.0 | 8.0 | 0.00 | 0.00 | 0.00 | 44 | 1015.6 |
| 20260902200859 | 97 | 356 | 5.0 | 8.0 | 0.00 | 0.00 | 0.00 | 43 | 1015.7 |
| 20260902200758 | 98 | 17 | 5.0 | 8.0 | 0.00 | 0.00 | 0.00 | 44 | 1015.7 |
| 20260902200558 | 99 | 22 | 4.0 | 8.0 | 0.00 | 0.00 | 0.00 | 43 | 1015.7 |
| 20260902200500 | 99 | 13 | 5.0 | 9.0 | 0.00 | 0.00 | 0.00 | 43 | 1015.6 |
| 20260902200359 | 99 | 3 | 2.0 | 9.0 | 0.00 | 0.00 | 0.00 | 44 | 1015.6 |
| 20260902200259 | 98 | 11 | 5.0 | 9.0 | 0.00 | 0.00 | 0.00 | 44 | 1015.6 |
| 20260902200158 | 98 | 1 | 4.0 | 9.0 | 0.00 | 0.00 | 0.00 | 44 | 1015.7 |
| 20260902200004 | 98 | 49 | 5.0 | 9.0 | 0.00 | 0.00 | 0.00 | 42 | 1015.7 |
| 20260902195858 | 98 | 4 | 4.0 | 9.0 | 0.00 | 0.00 | 0.00 | 43 | 1015.7 |
| 20260902195757 | 97 | 353 | 4.0 | 9.0 | 0.00 | 0.00 | 0.00 | 44 | 1015.8 |
| 20260902195659 | 98 | 332 | 4.0 | 9.0 | 0.00 | 0.00 | 0.00 | 43 | 1015.8 |
| 20260902195500 | 98 | 331 | 6.0 | 9.0 | 0.00 | 0.00 | 0.00 | 42 | 1015.9 |
| 20260902195358 | 99 | 24 | 3.0 | 9.0 | 0.00 | 0.00 | 0.00 | 43 | 1015.9 |
| 20260902195258 | 99 | 353 | 5.0 | 9.0 | 0.00 | 0.00 | 0.00 | 42 | 1015.9 |
| 20260902195158 | 99 | 48 | 2.0 | 7.0 | 0.00 | 0.00 | 0.00 | 43 | 1015.9 |
| 20260902195000 | 98 | 1 | 6.0 | 7.0 | 0.00 | 0.00 | 0.00 | 45 | 1015.9 |
| 20260902194757 | 96 | 347 | 5.0 | 7.0 | 0.00 | 0.00 | 0.00 | 45 | 1015.9 |
| 20260902194459 | 97 | 33 | 3.0 | 8.0 | 0.00 | 0.00 | 0.00 | 44 | 1016.0 |
| 20260902194358 | 97 | 50 | 2.0 | 8.0 | 0.00 | 0.00 | 0.00 | 44 | 1016.0 |
| 20260902194259 | 97 | 308 | 1.0 | 8.0 | 0.00 | 0.00 | 0.00 | 44 | 1016.0 |
| 20260902194158 | 97 | 56 | 3.0 | 8.0 | 0.00 | 0.00 | 0.00 | 45 | 1015.9 |
| 20260902194058 | 97 | 27 | 4.0 | 8.0 | 0.00 | 0.00 | 0.00 | 44 | 1016.0 |
| 20260902194003 | 97 | 120 | 2.0 | 8.0 | 0.00 | 0.00 | 0.00 | 45 | 1015.9 |
| 20260902193858 | 97 | 3 | 3.0 | 8.0 | 0.00 | 0.00 | 0.00 | 44 | 1016.0 |
| 20260902193759 | 97 | 39 | 1.0 | 7.0 | 0.00 | 0.00 | 0.00 | 44 | 1016.0 |
| 20260902193657 | 97 | 20 | 5.0 | 7.0 | 0.00 | 0.00 | 0.00 | 44 | 1016.0 |
| 20260902193558 | 97 | 1 | 5.0 | 7.0 | 0.00 | 0.00 | 0.00 | 44 | 1016.0 |
| 20260902193459 | 98 | 314 | 3.0 | 8.0 | 0.00 | 0.00 | 0.00 | 44 | 1016.1 |
| 20260902193358 | 97 | 345 | 4.0 | 8.0 | 0.00 | 0.00 | 0.00 | 44 | 1016.0 |
| 20260902193258 | 97 | 8 | 3.0 | 8.0 | 0.00 | 0.00 | 0.00 | 45 | 1016.0 |
| 20260902193158 | 97 | 335 | 4.0 | 9.0 | 0.00 | 0.00 | 0.00 | 44 | 1016.0 |
| 20260902193059 | 97 | 320 | 3.0 | 9.0 | 0.00 | 0.00 | 0.00 | 44 | 1016.0 |
| 20260902193000 | 98 | 358 | 4.0 | 9.0 | 0.00 | 0.00 | 0.00 | 44 | 1016.1 |
| 20260902192858 | 97 | 4 | 7.0 | 9.0 | 0.00 | 0.00 | 0.00 | 44 | 1016.1 |
| 20260902192758 | 97 | 344 | 6.0 | 9.0 | 0.00 | 0.00 | 0.00 | 44 | 1016.1 |
| 20260902192658 | 97 | 17 | 6.0 | 9.0 | 0.00 | 0.00 | 0.00 | 43 | 1016.2 |
| 20260902192559 | 98 | 15 | 4.0 | 9.0 | 0.00 | 0.00 | 0.00 | 43 | 1016.2 |
| 20260902192459 | 98 | 70 | 6.0 | 9.0 | 0.00 | 0.00 | 0.00 | 43 | 1016.3 |
| 20260902192358 | 98 | 358 | 8.0 | 9.0 | 0.00 | 0.00 | 0.00 | 43 | 1016.2 |
| 20260902192257 | 98 | 6 | 6.0 | 9.0 | 0.00 | 0.00 | 0.00 | 44 | 1016.3 |
| 20260902192058 | 97 | 358 | 4.0 | 8.0 | 0.00 | 0.00 | 0.00 | 45 | 1016.2 |
| 20260902191858 | 97 | 346 | 5.0 | 8.0 | 0.00 | 0.00 | 0.00 | 45 | 1016.3 |
| 20260902191758 | 97 | 1 | 5.0 | 8.0 | 0.00 | 0.00 | 0.00 | 44 | 1016.4 |
| 20260902191658 | 97 | 30 | 2.0 | 8.0 | 0.00 | 0.00 | 0.00 | 44 | 1016.3 |
| 20260902191558 | 97 | 343 | 6.0 | 8.0 | 0.00 | 0.00 | 0.00 | 45 | 1016.3 |
| 20260902191459 | 97 | 329 | 6.0 | 8.0 | 0.00 | 0.00 | 0.00 | 45 | 1016.5 |
| 20260902191259 | 96 | 331 | 4.0 | 9.0 | 0.00 | 0.00 | 0.00 | 44 | 1016.5 |
| 20260902191159 | 95 | 345 | 5.0 | 9.0 | 0.00 | 0.00 | 0.00 | 44 | 1016.4 |
| 20260902191058 | 95 | 46 | 3.0 | 9.0 | 0.00 | 0.00 | 0.00 | 43 | 1016.5 |
| 20260902191003 | 96 | 23 | 3.0 | 9.0 | 0.00 | 0.00 | 0.00 | 43 | 1016.5 |
| 20260902190858 | 96 | 53 | 0.0 | 9.0 | 0.00 | 0.00 | 0.00 | 42 | 1016.5 |
| 20260902190759 | 96 | 8 | 5.0 | 9.0 | 0.00 | 0.00 | 0.00 | 42 | 1016.6 |
| 20260902190657 | 96 | 355 | 6.0 | 9.0 | 0.00 | 0.00 | 0.00 | 42 | 1016.6 |
| 20260902190559 | 97 | 1 | 3.0 | 9.0 | 0.00 | 0.00 | 0.00 | 41 | 1016.7 |
| 20260902190459 | 97 | 8 | 9.0 | 9.0 | 0.00 | 0.00 | 0.00 | 42 | 1016.6 |
| 20260902190359 | 97 | 347 | 7.0 | 9.0 | 0.00 | 0.00 | 0.00 | 43 | 1016.6 |
| 20260902190258 | 98 | 8 | 5.0 | 9.0 | 0.00 | 0.00 | 0.00 | 42 | 1016.6 |
| 20260902190157 | 98 | 358 | 6.0 | 9.0 | 0.00 | 0.00 | 0.00 | 42 | 1016.6 |
| 20260902190058 | 98 | 338 | 7.0 | 9.0 | 0.00 | 0.00 | 0.00 | 44 | 1016.7 |
| 20260902190004 | 98 | 11 | 4.0 | 9.0 | 0.00 | 0.00 | 0.00 | 45 | 1016.7 |
| 20260902185858 | 98 | 328 | 4.0 | 9.0 | 0.00 | 0.00 | 0.00 | 46 | 1016.6 |
| 20260902185657 | 97 | 22 | 4.0 | 9.0 | 0.00 | 0.00 | 0.00 | 47 | 1016.6 |
| 20260902185558 | 97 | 346 | 4.0 | 9.0 | 0.00 | 0.00 | 0.00 | 46 | 1016.6 |
| 20260902185459 | 97 | 4 | 1.0 | 9.0 | 0.00 | 0.00 | 0.00 | 46 | 1016.7 |
| 20260902185158 | 98 | 353 | 7.0 | 9.0 | 0.00 | 0.00 | 0.00 | 46 | 1016.7 |
| 20260902184858 | 97 | 22 | 4.0 | 8.0 | 0.00 | 0.00 | 0.00 | 45 | 1016.8 |
| 20260902184658 | 97 | 22 | 6.0 | 8.0 | 0.00 | 0.00 | 0.00 | 45 | 1016.7 |
| 20260902184557 | 97 | 352 | 7.0 | 8.0 | 0.00 | 0.00 | 0.00 | 45 | 1016.6 |
| 20260902184358 | 97 | 332 | 2.0 | 8.0 | 0.00 | 0.00 | 0.00 | 45 | 1016.7 |
| 20260902184258 | 97 | 27 | 3.0 | 8.0 | 0.00 | 0.00 | 0.00 | 45 | 1016.7 |
| 20260902184158 | 97 | 358 | 5.0 | 8.0 | 0.00 | 0.00 | 0.00 | 46 | 1016.8 |
| 20260902184058 | 97 | 339 | 7.0 | 8.0 | 0.00 | 0.00 | 0.00 | 45 | 1016.8 |
| 20260902183758 | 97 | 313 | 3.0 | 7.0 | 0.00 | 0.00 | 0.00 | 44 | 1016.9 |
| 20260902183558 | 97 | 30 | 2.0 | 7.0 | 0.00 | 0.00 | 0.00 | 44 | 1016.8 |
| 20260902183500 | 97 | 353 | 3.0 | 7.0 | 0.00 | 0.00 | 0.00 | 44 | 1016.8 |
| 20260902183358 | 97 | 10 | 2.0 | 7.0 | 0.00 | 0.00 | 0.00 | 45 | 1016.8 |
| 20260902183258 | 97 | 17 | 0.0 | 7.0 | 0.00 | 0.00 | 0.00 | 44 | 1016.9 |
| 20260902183158 | 97 | 339 | 3.0 | 7.0 | 0.00 | 0.00 | 0.00 | 44 | 1016.9 |
| 20260902183058 | 97 | 333 | 2.0 | 7.0 | 0.00 | 0.00 | 0.00 | 44 | 1016.9 |
| 20260902182858 | 97 | 20 | 4.0 | 8.0 | 0.00 | 0.00 | 0.00 | 42 | 1016.8 |
| 20260902182759 | 97 | 75 | 4.0 | 8.0 | 0.00 | 0.00 | 0.00 | 43 | 1016.9 |
| 20260902182558 | 97 | 11 | 3.0 | 8.0 | 0.00 | 0.00 | 0.00 | 46 | 1016.9 |
| 20260902182500 | 96 | 355 | 3.0 | 8.0 | 0.00 | 0.00 | 0.00 | 46 | 1016.8 |
| 20260902182159 | 96 | 357 | 5.0 | 8.0 | 0.00 | 0.00 | 0.00 | 46 | 1017.0 |
| 20260902182057 | 96 | 331 | 8.0 | 8.0 | 0.00 | 0.00 | 0.00 | 47 | 1016.9 |
| 20260902182000 | 96 | 10 | 5.0 | 8.0 | 0.00 | 0.00 | 0.00 | 47 | 1016.9 |
| 20260902181858 | 96 | 13 | 3.0 | 8.0 | 0.00 | 0.00 | 0.00 | 46 | 1016.9 |
| 20260902181658 | 96 | 345 | 6.0 | 8.0 | 0.00 | 0.00 | 0.00 | 47 | 1016.9 |
| 20260902181558 | 96 | 349 | 5.0 | 8.0 | 0.00 | 0.00 | 0.00 | 46 | 1017.0 |
| 20260902181459 | 96 | 341 | 5.0 | 8.0 | 0.00 | 0.00 | 0.00 | 46 | 1016.9 |
| 20260902181358 | 96 | 342 | 5.0 | 8.0 | 0.00 | 0.00 | 0.00 | 46 | 1017.0 |
| 20260902181257 | 95 | 360 | 5.0 | 9.0 | 0.00 | 0.00 | 0.00 | 46 | 1016.9 |
| 20260902181059 | 96 | 11 | 4.0 | 9.0 | 0.00 | 0.00 | 0.00 | 46 | 1017.0 |
| 20260902181003 | 96 | 316 | 3.0 | 9.0 | 0.00 | 0.00 | 0.00 | 46 | 1017.0 |
| 20260902180858 | 96 | 19 | 3.0 | 9.0 | 0.00 | 0.00 | 0.00 | 47 | 1017.0 |
| 20260902180758 | 96 | 345 | 6.0 | 9.0 | 0.00 | 0.00 | 0.00 | 47 | 1017.0 |
| 20260902180657 | 96 | 357 | 4.0 | 9.0 | 0.00 | 0.00 | 0.00 | 47 | 1017.1 |
| 20260902180559 | 95 | 3 | 5.0 | 9.0 | 0.00 | 0.00 | 0.00 | 48 | 1017.1 |
| 20260902180459 | 95 | 13 | 6.0 | 9.0 | 0.00 | 0.00 | 0.00 | 47 | 1017.0 |
| 20260902180259 | 95 | 4 | 3.0 | 8.0 | 0.00 | 0.00 | 0.00 | 46 | 1017.1 |
| 20260902180058 | 96 | 38 | 1.0 | 8.0 | 0.00 | 0.00 | 0.00 | 45 | 1017.1 |
| 20260902180001 | 96 | 8 | 3.0 | 8.0 | 0.00 | 0.00 | 0.00 | 45 | 1017.2 |
| 20260902175758 | 95 | 4 | 6.0 | 8.0 | 0.00 | 0.00 | 0.00 | 47 | 1017.3 |
| 20260902175658 | 95 | 17 | 2.0 | 8.0 | 0.00 | 0.00 | 0.00 | 45 | 1017.2 |
| 20260902175559 | 95 | 6 | 2.0 | 8.0 | 0.00 | 0.00 | 0.00 | 46 | 1017.3 |
| 20260902175500 | 95 | 8 | 2.0 | 8.0 | 0.00 | 0.00 | 0.00 | 46 | 1017.4 |
| 20260902175358 | 96 | 345 | 4.0 | 8.0 | 0.00 | 0.00 | 0.00 | 46 | 1017.3 |
| 20260902175257 | 96 | 354 | 4.0 | 8.0 | 0.00 | 0.00 | 0.00 | 46 | 1017.3 |
| 20260902175157 | 96 | 23 | 4.0 | 8.0 | 0.00 | 0.00 | 0.00 | 47 | 1017.3 |
| 20260902175058 | 97 | 352 | 7.0 | 8.0 | 0.00 | 0.00 | 0.00 | 47 | 1017.3 |
| 20260902175003 | 96 | 44 | 4.0 | 9.0 | 0.00 | 0.00 | 0.00 | 47 | 1017.2 |
| 20260902174857 | 96 | 357 | 6.0 | 9.0 | 0.00 | 0.00 | 0.00 | 47 | 1017.3 |
| 20260902174758 | 95 | 360 | 5.0 | 9.0 | 0.00 | 0.00 | 0.00 | 47 | 1017.2 |
| 20260902174658 | 95 | 357 | 6.0 | 9.0 | 0.00 | 0.00 | 0.00 | 47 | 1017.3 |
| 20260902174557 | 94 | 358 | 5.0 | 9.0 | 0.00 | 0.00 | 0.00 | 48 | 1017.3 |
| 20260902174459 | 94 | 335 | 6.0 | 9.0 | 0.00 | 0.00 | 0.00 | 48 | 1017.3 |
| 20260902174259 | 94 | 338 | 7.0 | 10.0 | 0.00 | 0.00 | 0.00 | 47 | 1017.4 |
| 20260902174158 | 95 | 345 | 7.0 | 10.0 | 0.00 | 0.00 | 0.00 | 47 | 1017.4 |
| 20260902174058 | 95 | 345 | 6.0 | 10.0 | 0.00 | 0.00 | 0.00 | 47 | 1017.4 |
| 20260902174003 | 95 | 329 | 2.0 | 10.0 | 0.00 | 0.00 | 0.00 | 45 | 1017.4 |
| 20260902173858 | 95 | 68 | 3.0 | 10.0 | 0.00 | 0.00 | 0.00 | 45 | 1017.5 |
| 20260902173759 | 94 | 22 | 3.0 | 10.0 | 0.00 | 0.00 | 0.00 | 46 | 1017.5 |
| 20260902173659 | 94 | 6 | 3.0 | 10.0 | 0.00 | 0.00 | 0.00 | 47 | 1017.5 |
| 20260902173558 | 94 | 105 | 2.0 | 10.0 | 0.00 | 0.00 | 0.00 | 47 | 1017.6 |
| 20260902173359 | 94 | 358 | 2.0 | 7.0 | 0.00 | 0.00 | 0.00 | 48 | 1017.6 |
| 20260902173258 | 94 | 38 | 3.0 | 7.0 | 0.00 | 0.00 | 0.00 | 49 | 1017.5 |
| 20260902173157 | 94 | 63 | 2.0 | 7.0 | 0.00 | 0.00 | 0.00 | 50 | 1017.6 |
| 20260902173058 | 93 | 1 | 7.0 | 7.0 | 0.00 | 0.00 | 0.00 | 51 | 1017.5 |
| 20260902173002 | 93 | 346 | 5.0 | 8.0 | 0.00 | 0.00 | 0.00 | 52 | 1017.5 |
| 20260902172758 | 93 | 319 | 4.0 | 8.0 | 0.00 | 0.00 | 0.00 | 51 | 1017.5 |
| 20260902172558 | 94 | 278 | 1.0 | 8.0 | 0.00 | 0.00 | 0.00 | 49 | 1017.5 |
| 20260902172459 | 94 | 30 | 1.0 | 8.0 | 0.00 | 0.00 | 0.00 | 49 | 1017.7 |
| 20260902172358 | 95 | 46 | 3.0 | 8.0 | 0.00 | 0.00 | 0.00 | 49 | 1017.7 |
| 20260902172258 | 95 | 23 | 4.0 | 8.0 | 0.00 | 0.00 | 0.00 | 49 | 1017.7 |
| 20260902172158 | 95 | 22 | 3.0 | 8.0 | 0.00 | 0.00 | 0.00 | 49 | 1017.6 |
| 20260902172058 | 95 | 337 | 3.0 | 8.0 | 0.00 | 0.00 | 0.00 | 49 | 1017.7 |
| 20260902172004 | 95 | 350 | 6.0 | 8.0 | 0.00 | 0.00 | 0.00 | 49 | 1017.7 |
| 20260902171858 | 95 | 10 | 6.0 | 8.0 | 0.00 | 0.00 | 0.00 | 50 | 1017.6 |
| 20260902171758 | 96 | 100 | 4.0 | 8.0 | 0.00 | 0.00 | 0.00 | 48 | 1017.8 |
| 20260902171658 | 96 | 51 | 4.0 | 8.0 | 0.00 | 0.00 | 0.00 | 49 | 1017.6 |
| 20260902171558 | 96 | 85 | 4.0 | 8.0 | 0.00 | 0.00 | 0.00 | 49 | 1017.7 |
| 20260902171459 | 96 | 1 | 5.0 | 8.0 | 0.00 | 0.00 | 0.00 | 50 | 1017.5 |
| 20260902171357 | 95 | 335 | 5.0 | 8.0 | 0.00 | 0.00 | 0.00 | 50 | 1017.7 |
| 20260902171259 | 95 | 4 | 6.0 | 8.0 | 0.00 | 0.00 | 0.00 | 50 | 1017.7 |
| 20260902171158 | 95 | 3 | 7.0 | 8.0 | 0.00 | 0.00 | 0.00 | 49 | 1017.6 |
| 20260902171057 | 95 | 4 | 5.0 | 8.0 | 0.00 | 0.00 | 0.00 | 49 | 1017.7 |
| 20260902170857 | 95 | 358 | 3.0 | 8.0 | 0.00 | 0.00 | 0.00 | 49 | 1017.8 |
| 20260902170759 | 95 | 20 | 3.0 | 8.0 | 0.00 | 0.00 | 0.00 | 51 | 1017.8 |
| 20260902170658 | 95 | 330 | 3.0 | 8.0 | 0.00 | 0.00 | 0.00 | 50 | 1017.8 |
| 20260902170558 | 95 | 357 | 3.0 | 8.0 | 0.00 | 0.00 | 0.00 | 50 | 1017.8 |
| 20260902170501 | 95 | 344 | 3.0 | 8.0 | 0.00 | 0.00 | 0.00 | 51 | 1017.9 |
| 20260902170357 | 95 | 13 | 6.0 | 8.0 | 0.00 | 0.00 | 0.00 | 52 | 1017.9 |
| 20260902170259 | 95 | 3 | 6.0 | 8.0 | 0.00 | 0.00 | 0.00 | 51 | 1017.9 |
| 20260902170158 | 95 | 356 | 6.0 | 8.0 | 0.00 | 0.00 | 0.00 | 50 | 1017.9 |
| 20260902170058 | 95 | 342 | 8.0 | 8.0 | 0.00 | 0.00 | 0.00 | 50 | 1017.9 |
| 20260902165858 | 95 | 10 | 7.0 | 8.0 | 0.00 | 0.00 | 0.00 | 49 | 1017.9 |
| 20260902165758 | 95 | 350 | 5.0 | 8.0 | 0.00 | 0.00 | 0.00 | 49 | 1018.0 |
| 20260902165658 | 95 | 355 | 6.0 | 6.0 | 0.00 | 0.00 | 0.00 | 50 | 1018.0 |
| 20260902165559 | 94 | 333 | 4.0 | 6.0 | 0.00 | 0.00 | 0.00 | 51 | 1018.1 |
| 20260902165500 | 94 | 70 | 1.0 | 6.0 | 0.00 | 0.00 | 0.00 | 53 | 1018.1 |
| 20260902165359 | 94 | 19 | 3.0 | 6.0 | 0.00 | 0.00 | 0.00 | 53 | 1018.2 |
| 20260902165257 | 94 | 345 | 5.0 | 6.0 | 0.00 | 0.00 | 0.00 | 53 | 1018.1 |
| 20260902165057 | 94 | 318 | 3.0 | 6.0 | 0.00 | 0.00 | 0.00 | 53 | 1018.2 |
| 20260902164858 | 93 | 359 | 5.0 | 6.0 | 0.00 | 0.00 | 0.00 | 53 | 1018.2 |
| 20260902164758 | 93 | 4 | 6.0 | 6.0 | 0.00 | 0.00 | 0.00 | 53 | 1018.2 |
| 20260902164657 | 93 | 338 | 3.0 | 6.0 | 0.00 | 0.00 | 0.00 | 54 | 1018.2 |
| 20260902164500 | 92 | 4 | 2.0 | 7.0 | 0.00 | 0.00 | 0.00 | 54 | 1018.2 |
| 20260902164358 | 92 | 327 | 3.0 | 7.0 | 0.00 | 0.00 | 0.00 | 54 | 1018.2 |
| 20260902164259 | 92 | 342 | 5.0 | 8.0 | 0.00 | 0.00 | 0.00 | 52 | 1018.2 |
| 20260902164158 | 93 | 338 | 3.0 | 8.0 | 0.00 | 0.00 | 0.00 | 53 | 1018.2 |
| 20260902164059 | 93 | 41 | 4.0 | 8.0 | 0.00 | 0.00 | 0.00 | 53 | 1018.3 |
| 20260902164003 | 93 | 353 | 5.0 | 8.0 | 0.00 | 0.00 | 0.00 | 52 | 1018.3 |
| 20260902163858 | 93 | 77 | 2.0 | 8.0 | 0.00 | 0.00 | 0.00 | 53 | 1018.3 |
| 20260902163757 | 93 | 13 | 1.0 | 8.0 | 0.00 | 0.00 | 0.00 | 53 | 1018.4 |
| 20260902163658 | 93 | 334 | 6.0 | 8.0 | 0.00 | 0.00 | 0.00 | 53 | 1018.3 |
| 20260902163558 | 93 | 54 | 2.0 | 8.0 | 0.00 | 0.00 | 0.00 | 53 | 1018.3 |
| 20260902163459 | 94 | 356 | 2.0 | 8.0 | 0.00 | 0.00 | 0.00 | 53 | 1018.4 |
| 20260902163358 | 94 | 11 | 6.0 | 8.0 | 0.00 | 0.00 | 0.00 | 54 | 1018.3 |
| 20260902163257 | 94 | 5 | 5.0 | 8.0 | 0.00 | 0.00 | 0.00 | 54 | 1018.4 |
| 20260902163158 | 94 | 329 | 5.0 | 8.0 | 0.00 | 0.00 | 0.00 | 54 | 1018.4 |
| 20260902163057 | 93 | 342 | 4.0 | 8.0 | 0.00 | 0.00 | 0.00 | 55 | 1018.4 |
| 20260902163000 | 93 | 351 | 5.0 | 8.0 | 0.00 | 0.00 | 0.00 | 54 | 1018.5 |
| 20260902162858 | 93 | 343 | 5.0 | 8.0 | 0.00 | 0.00 | 0.00 | 54 | 1018.5 |
| 20260902162759 | 93 | 331 | 4.0 | 8.0 | 0.00 | 0.00 | 0.00 | 54 | 1018.5 |
| 20260902162558 | 93 | 355 | 6.0 | 8.0 | 0.00 | 0.00 | 0.00 | 55 | 1018.4 |
| 20260902162458 | 93 | 25 | 4.0 | 8.0 | 0.00 | 0.00 | 0.00 | 54 | 1018.4 |
| 20260902162358 | 93 | 30 | 2.0 | 8.0 | 0.00 | 0.00 | 0.00 | 54 | 1018.4 |
| 20260902162258 | 93 | 11 | 2.0 | 8.0 | 0.00 | 0.00 | 0.00 | 56 | 1018.5 |
| 20260902162159 | 93 | 23 | 5.0 | 7.0 | 0.00 | 0.00 | 0.00 | 55 | 1018.4 |
| 20260902162058 | 92 | 355 | 3.0 | 7.0 | 0.00 | 0.00 | 0.00 | 55 | 1018.4 |
| 20260902162001 | 92 | 50 | 3.0 | 7.0 | 0.00 | 0.00 | 0.00 | 56 | 1018.5 |
| 20260902161858 | 92 | 1 | 6.0 | 7.0 | 0.00 | 0.00 | 0.00 | 56 | 1018.5 |
| 20260902161658 | 92 | 66 | 4.0 | 8.0 | 0.00 | 0.00 | 0.00 | 57 | 1018.5 |
| 20260902161558 | 92 | 344 | 5.0 | 8.0 | 0.00 | 0.00 | 0.00 | 57 | 1018.6 |
| 20260902161459 | 92 | 288 | 1.0 | 8.0 | 0.00 | 0.00 | 0.00 | 57 | 1018.5 |
| 20260902161358 | 92 | 1 | 1.0 | 8.0 | 0.00 | 0.00 | 0.00 | 56 | 1018.5 |
| 20260902161258 | 92 | 62 | 4.0 | 8.0 | 0.00 | 0.00 | 0.00 | 56 | 1018.6 |
| 20260902161059 | 92 | 348 | 5.0 | 8.0 | 0.00 | 0.00 | 0.00 | 56 | 1018.6 |
| 20260902160859 | 92 | 13 | 7.0 | 8.0 | 0.00 | 0.00 | 0.00 | 56 | 1018.5 |
| 20260902160757 | 92 | 4 | 3.0 | 8.0 | 0.00 | 0.00 | 0.00 | 55 | 1018.5 |
| 20260902160658 | 93 | 24 | 3.0 | 8.0 | 0.00 | 0.00 | 0.00 | 55 | 1018.5 |
| 20260902160500 | 93 | 20 | 3.0 | 8.0 | 0.00 | 0.00 | 0.00 | 58 | 1018.5 |
| 20260902160358 | 92 | 1 | 6.0 | 8.0 | 0.00 | 0.00 | 0.00 | 58 | 1018.5 |
| 20260902160258 | 92 | 8 | 8.0 | 8.0 | 0.00 | 0.00 | 0.00 | 57 | 1018.5 |
| 20260902160159 | 92 | 3 | 6.0 | 8.0 | 0.00 | 0.00 | 0.00 | 58 | 1018.6 |
| 20260902160057 | 92 | 355 | 3.0 | 8.0 | 0.00 | 0.00 | 0.00 | 57 | 1018.6 |
| 20260902160005 | 92 | 257 | 2.0 | 8.0 | 0.00 | 0.00 | 0.00 | 57 | 1018.6 |
| 20260902155859 | 92 | 13 | 3.0 | 8.0 | 0.00 | 0.00 | 0.00 | 57 | 1018.5 |
| 20260902155658 | 92 | 1 | 3.0 | 9.0 | 0.00 | 0.00 | 0.00 | 57 | 1018.5 |
| 20260902155557 | 92 | 346 | 4.0 | 9.0 | 0.00 | 0.00 | 0.00 | 57 | 1018.5 |
| 20260902155358 | 92 | 15 | 3.0 | 9.0 | 0.00 | 0.00 | 0.00 | 57 | 1018.6 |
| 20260902155258 | 92 | 319 | 4.0 | 9.0 | 0.00 | 0.00 | 0.00 | 58 | 1018.6 |
| 20260902155058 | 91 | 343 | 6.0 | 9.0 | 0.00 | 0.00 | 0.00 | 58 | 1018.6 |
| 20260902155000 | 92 | 336 | 8.0 | 9.0 | 0.00 | 0.00 | 0.00 | 59 | 1018.6 |
| 20260902154758 | 91 | 329 | 5.0 | 8.0 | 0.00 | 0.00 | 0.00 | 60 | 1018.7 |
| 20260902154658 | 91 | 348 | 4.0 | 6.0 | 0.00 | 0.00 | 0.00 | 59 | 1018.7 |
| 20260902154459 | 91 | 15 | 1.0 | 9.0 | 0.00 | 0.00 | 0.00 | 60 | 1018.7 |
| 20260902154359 | 91 | 339 | 4.0 | 10.0 | 0.00 | 0.00 | 0.00 | 60 | 1018.8 |
| 20260902154258 | 90 | 38 | 3.0 | 10.0 | 0.00 | 0.00 | 0.00 | 60 | 1018.7 |
| 20260902154158 | 90 | 65 | 1.0 | 10.0 | 0.00 | 0.00 | 0.00 | 59 | 1018.7 |
| 20260902154059 | 90 | 66 | 2.0 | 10.0 | 0.00 | 0.00 | 0.00 | 60 | 1018.7 |
| 20260902154001 | 90 | 338 | 3.0 | 10.0 | 0.00 | 0.00 | 0.00 | 61 | 1018.8 |
| 20260902153859 | 90 | 335 | 4.0 | 10.0 | 0.00 | 0.00 | 0.00 | 60 | 1018.8 |
| 20260902153758 | 90 | 344 | 6.0 | 10.0 | 0.00 | 0.00 | 0.00 | 59 | 1018.8 |
| 20260902153559 | 91 | 332 | 6.0 | 10.0 | 0.00 | 0.00 | 0.00 | 59 | 1018.8 |
| 20260902153459 | 91 | 339 | 6.0 | 10.0 | 0.00 | 0.00 | 0.00 | 59 | 1018.7 |
| 20260902153358 | 91 | 338 | 3.0 | 7.0 | 0.00 | 0.00 | 0.00 | 60 | 1018.7 |
| 20260902153258 | 91 | 330 | 6.0 | 7.0 | 0.00 | 0.00 | 0.00 | 59 | 1018.7 |
| 20260902153159 | 91 | 332 | 3.0 | 7.0 | 0.00 | 0.00 | 0.00 | 60 | 1018.7 |
| 20260902153000 | 91 | 316 | 6.0 | 9.0 | 0.00 | 0.00 | 0.00 | 61 | 1018.8 |
| 20260902152859 | 91 | 333 | 3.0 | 9.0 | 0.00 | 0.00 | 0.00 | 62 | 1018.8 |
| 20260902152757 | 90 | 6 | 7.0 | 9.0 | 0.00 | 0.00 | 0.00 | 63 | 1018.7 |
| 20260902152659 | 89 | 10 | 2.0 | 9.0 | 0.00 | 0.00 | 0.00 | 63 | 1018.8 |
| 20260902152559 | 89 | 338 | 5.0 | 9.0 | 0.00 | 0.00 | 0.00 | 63 | 1018.8 |
| 20260902152500 | 89 | 323 | 4.0 | 9.0 | 0.00 | 0.00 | 0.00 | 63 | 1018.7 |
| 20260902152358 | 89 | 330 | 4.0 | 9.0 | 0.00 | 0.00 | 0.00 | 63 | 1018.7 |
| 20260902152258 | 89 | 336 | 5.0 | 9.0 | 0.00 | 0.00 | 0.00 | 62 | 1018.7 |
| 20260902152158 | 89 | 327 | 5.0 | 9.0 | 0.00 | 0.00 | 0.00 | 62 | 1018.7 |
| 20260902152003 | 89 | 327 | 6.0 | 9.0 | 0.00 | 0.00 | 0.00 | 63 | 1018.7 |
| 20260902151757 | 89 | 330 | 6.0 | 9.0 | 0.00 | 0.00 | 0.00 | 63 | 1018.7 |
| 20260902151657 | 89 | 331 | 3.0 | 9.0 | 0.00 | 0.00 | 0.00 | 63 | 1018.7 |
| 20260902151559 | 89 | 327 | 4.0 | 9.0 | 0.00 | 0.00 | 0.00 | 62 | 1018.7 |
| 20260902151459 | 89 | 343 | 6.0 | 9.0 | 0.00 | 0.00 | 0.00 | 62 | 1018.7 |
| 20260902151358 | 89 | 350 | 5.0 | 8.0 | 0.00 | 0.00 | 0.00 | 63 | 1018.7 |
| 20260902151258 | 89 | 343 | 6.0 | 8.0 | 0.00 | 0.00 | 0.00 | 63 | 1018.7 |
| 20260902151158 | 89 | 341 | 4.0 | 8.0 | 0.00 | 0.00 | 0.00 | 63 | 1018.7 |
| 20260902151058 | 89 | 345 | 8.0 | 9.0 | 0.00 | 0.00 | 0.00 | 62 | 1018.7 |
| 20260902151003 | 89 | 332 | 7.0 | 9.0 | 0.00 | 0.00 | 0.00 | 62 | 1018.7 |
| 20260902150759 | 90 | 343 | 5.0 | 9.0 | 0.00 | 0.00 | 0.00 | 62 | 1018.7 |
| 20260902150658 | 90 | 349 | 6.0 | 9.0 | 0.00 | 0.00 | 0.00 | 63 | 1018.6 |
| 20260902150558 | 89 | 345 | 4.0 | 9.0 | 0.00 | 0.00 | 0.00 | 63 | 1018.7 |
| 20260902150500 | 89 | 326 | 3.0 | 9.0 | 0.00 | 0.00 | 0.00 | 63 | 1018.5 |
| 20260902150358 | 89 | 353 | 4.0 | 9.0 | 0.00 | 0.00 | 0.00 | 62 | 1018.6 |
| 20260902150259 | 89 | 328 | 5.0 | 9.0 | 0.00 | 0.00 | 0.00 | 61 | 1018.5 |
| 20260902150200 | 90 | 335 | 4.0 | 9.0 | 0.00 | 0.00 | 0.00 | 62 | 1018.6 |
| 20260902150059 | 90 | 334 | 4.0 | 8.0 | 0.00 | 0.00 | 0.00 | 62 | 1018.6 |
| 20260902150002 | 89 | 333 | 6.0 | 8.0 | 0.00 | 0.00 | 0.00 | 63 | 1018.6 |
| 20260902145758 | 88 | 1 | 5.0 | 8.0 | 0.00 | 0.00 | 0.00 | 64 | 1018.5 |
| 20260902145658 | 88 | 359 | 3.0 | 8.0 | 0.00 | 0.00 | 0.00 | 64 | 1018.5 |
| 20260902145558 | 88 | 349 | 7.0 | 8.0 | 0.00 | 0.00 | 0.00 | 64 | 1018.7 |
| 20260902145500 | 88 | 333 | 5.0 | 7.0 | 0.00 | 0.00 | 0.00 | 64 | 1018.7 |
| 20260902145358 | 89 | 345 | 5.0 | 7.0 | 0.00 | 0.00 | 0.00 | 64 | 1018.7 |
| 20260902145158 | 89 | 323 | 5.0 | 7.0 | 0.00 | 0.00 | 0.00 | 65 | 1018.7 |
| 20260902145057 | 89 | 110 | 1.0 | 7.0 | 0.00 | 0.00 | 0.00 | 66 | 1018.7 |
| 20260902144858 | 88 | 340 | 4.0 | 7.0 | 0.00 | 0.00 | 0.00 | 67 | 1018.7 |
| 20260902144659 | 88 | 333 | 4.0 | 7.0 | 0.00 | 0.00 | 0.00 | 68 | 1018.6 |
| 20260902144558 | 88 | 4 | 5.0 | 7.0 | 0.00 | 0.00 | 0.00 | 69 | 1018.6 |
| 20260902144500 | 87 | 352 | 3.0 | 7.0 | 0.00 | 0.00 | 0.00 | 69 | 1018.6 |
| 20260902144358 | 87 | 22 | 2.0 | 7.0 | 0.00 | 0.00 | 0.00 | 69 | 1018.6 |
| 20260902144258 | 87 | 336 | 5.0 | 7.0 | 0.00 | 0.00 | 0.00 | 69 | 1018.5 |
| 20260902144159 | 87 | 345 | 7.0 | 7.0 | 0.00 | 0.00 | 0.00 | 69 | 1018.5 |
| 20260902144057 | 87 | 345 | 3.0 | 8.0 | 0.00 | 0.00 | 0.00 | 71 | 1018.6 |
| 20260902144003 | 87 | 340 | 6.0 | 8.0 | 0.00 | 0.00 | 0.00 | 70 | 1018.6 |
| 20260902143858 | 86 | 341 | 6.0 | 8.0 | 0.00 | 0.00 | 0.00 | 70 | 1018.5 |
| 20260902143758 | 86 | 341 | 5.0 | 8.0 | 0.00 | 0.00 | 0.00 | 70 | 1018.5 |
| 20260902143658 | 86 | 350 | 5.0 | 8.0 | 0.00 | 0.00 | 0.00 | 70 | 1018.5 |
| 20260902143557 | 86 | 319 | 4.0 | 8.0 | 0.00 | 0.00 | 0.00 | 70 | 1018.5 |
| 20260902143458 | 86 | 340 | 5.0 | 8.0 | 0.00 | 0.00 | 0.00 | 70 | 1018.6 |
| 20260902143358 | 86 | 335 | 5.0 | 8.0 | 0.00 | 0.00 | 0.00 | 70 | 1018.6 |
| 20260902143258 | 87 | 339 | 6.0 | 8.0 | 0.00 | 0.00 | 0.00 | 69 | 1018.5 |
| 20260902143158 | 87 | 342 | 5.0 | 8.0 | 0.00 | 0.00 | 0.00 | 70 | 1018.5 |
| 20260902143001 | 86 | 327 | 5.0 | 8.0 | 0.00 | 0.00 | 0.00 | 72 | 1018.5 |
| 20260902142857 | 86 | 330 | 3.0 | 8.0 | 0.00 | 0.00 | 0.00 | 72 | 1018.5 |
| 20260902142657 | 86 | 323 | 4.0 | 9.0 | 0.00 | 0.00 | 0.00 | 72 | 1018.6 |
| 20260902142559 | 85 | 333 | 5.0 | 9.0 | 0.00 | 0.00 | 0.00 | 73 | 1018.6 |
| 20260902142459 | 85 | 333 | 4.0 | 9.0 | 0.00 | 0.00 | 0.00 | 74 | 1018.6 |
| 20260902142358 | 85 | 350 | 4.0 | 9.0 | 0.00 | 0.00 | 0.00 | 73 | 1018.7 |
| 20260902142257 | 85 | 326 | 5.0 | 9.0 | 0.00 | 0.00 | 0.00 | 74 | 1018.7 |
| 20260902142058 | 85 | 350 | 5.0 | 9.0 | 0.00 | 0.00 | 0.00 | 74 | 1018.7 |
| 20260902142002 | 85 | 352 | 3.0 | 9.0 | 0.00 | 0.00 | 0.00 | 74 | 1018.7 |
| 20260902141859 | 84 | 357 | 4.0 | 9.0 | 0.00 | 0.00 | 0.00 | 74 | 1018.7 |
| 20260902141758 | 84 | 333 | 5.0 | 9.0 | 0.00 | 0.00 | 0.00 | 74 | 1018.8 |
| 20260902141558 | 84 | 340 | 4.0 | 6.0 | 0.00 | 0.00 | 0.00 | 74 | 1018.7 |
| 20260902141500 | 84 | 333 | 4.0 | 6.0 | 0.00 | 0.00 | 0.00 | 74 | 1018.7 |
| 20260902141257 | 85 | 355 | 5.0 | 6.0 | 0.00 | 0.00 | 0.00 | 75 | 1018.7 |
| 20260902141058 | 84 | 346 | 4.0 | 6.0 | 0.00 | 0.00 | 0.00 | 75 | 1018.7 |
| 20260902141003 | 85 | 347 | 4.0 | 6.0 | 0.00 | 0.00 | 0.00 | 75 | 1018.6 |
| 20260902140758 | 84 | 5 | 5.0 | 6.0 | 0.00 | 0.00 | 0.00 | 77 | 1018.7 |
| 20260902140659 | 84 | 323 | 3.0 | 6.0 | 0.00 | 0.00 | 0.00 | 77 | 1018.6 |
| 20260902140558 | 83 | 348 | 3.0 | 6.0 | 0.00 | 0.00 | 0.00 | 77 | 1018.6 |
| 20260902140502 | 83 | 354 | 4.0 | 6.0 | 0.00 | 0.00 | 0.00 | 78 | 1018.6 |
| 20260902140358 | 83 | 341 | 4.0 | 6.0 | 0.00 | 0.00 | 0.00 | 78 | 1018.7 |
| 20260902140158 | 83 | 338 | 3.0 | 5.0 | 0.00 | 0.00 | 0.00 | 79 | 1018.6 |
| 20260902140059 | 83 | 329 | 3.0 | 5.0 | 0.00 | 0.00 | 0.00 | 79 | 1018.6 |
| 20260902135858 | 82 | 326 | 1.0 | 5.0 | 0.00 | 0.00 | 0.00 | 80 | 1018.7 |
| 20260902135756 | 82 | 342 | 2.0 | 5.0 | 0.00 | 0.00 | 0.00 | 80 | 1018.6 |
| 20260902135657 | 82 | 345 | 3.0 | 5.0 | 0.00 | 0.00 | 0.00 | 80 | 1018.7 |
| 20260902135557 | 81 | 331 | 3.0 | 5.0 | 0.00 | 0.00 | 0.00 | 81 | 1018.8 |
| 20260902135358 | 81 | 347 | 4.0 | 5.0 | 0.00 | 0.00 | 0.00 | 81 | 1018.7 |
| 20260902135258 | 81 | 338 | 4.0 | 4.0 | 0.00 | 0.00 | 0.00 | 82 | 1018.7 |
| 20260902135157 | 81 | 359 | 2.0 | 4.0 | 0.00 | 0.00 | 0.00 | 82 | 1018.7 |
| 20260902134858 | 80 | 360 | 3.0 | 4.0 | 0.00 | 0.00 | 0.00 | 83 | 1018.7 |
| 20260902134756 | 80 | 359 | 2.0 | 4.0 | 0.00 | 0.00 | 0.00 | 84 | 1018.7 |
| 20260902134657 | 80 | 338 | 2.0 | 4.0 | 0.00 | 0.00 | 0.00 | 84 | 1018.8 |
| 20260902134459 | 80 | 333 | 3.0 | 4.0 | 0.00 | 0.00 | 0.00 | 84 | 1018.8 |
| 20260902134358 | 79 | 1 | 3.0 | 4.0 | 0.00 | 0.00 | 0.00 | 85 | 1018.8 |
| 20260902134257 | 79 | 344 | 1.0 | 3.0 | 0.00 | 0.00 | 0.00 | 85 | 1018.7 |
| 20260902134157 | 79 | 345 | 2.0 | 3.0 | 0.00 | 0.00 | 0.00 | 86 | 1018.8 |
| 20260902134058 | 79 | 338 | 0.0 | 3.0 | 0.00 | 0.00 | 0.00 | 86 | 1018.7 |
| 20260902134000 | 79 | 335 | 1.0 | 3.0 | 0.00 | 0.00 | 0.00 | 86 | 1018.8 |
| 20260902133858 | 78 | 317 | 1.0 | 3.0 | 0.00 | 0.00 | 0.00 | 86 | 1018.7 |
| 20260902133757 | 78 | 298 | 2.0 | 3.0 | 0.00 | 0.00 | 0.00 | 86 | 1018.7 |
| 20260902133657 | 78 | 322 | 2.0 | 3.0 | 0.00 | 0.00 | 0.00 | 87 | 1018.7 |
| 20260902133557 | 78 | 335 | 2.0 | 3.0 | 0.00 | 0.00 | 0.00 | 87 | 1018.7 |
| 20260902133458 | 78 | 311 | 2.0 | 3.0 | 0.00 | 0.00 | 0.00 | 87 | 1018.8 |
| 20260902133357 | 78 | 307 | 0.0 | 4.0 | 0.00 | 0.00 | 0.00 | 87 | 1018.6 |
| 20260902133256 | 78 | 316 | 2.0 | 4.0 | 0.00 | 0.00 | 0.00 | 87 | 1018.7 |
| 20260902133157 | 78 | 309 | 2.0 | 4.0 | 0.00 | 0.00 | 0.00 | 87 | 1018.7 |
| 20260902133058 | 77 | 300 | 1.0 | 4.0 | 0.00 | 0.00 | 0.00 | 87 | 1018.6 |
| 20260902133000 | 77 | 292 | 1.0 | 4.0 | 0.00 | 0.00 | 0.00 | 87 | 1018.6 |
| 20260902132857 | 77 | 301 | 2.0 | 4.0 | 0.00 | 0.00 | 0.00 | 87 | 1018.7 |
| 20260902132757 | 77 | 286 | 2.0 | 4.0 | 0.00 | 0.00 | 0.00 | 87 | 1018.7 |
| 20260902132657 | 77 | 286 | 2.0 | 4.0 | 0.00 | 0.00 | 0.00 | 87 | 1018.7 |
| 20260902132557 | 77 | 321 | 2.0 | 4.0 | 0.00 | 0.00 | 0.00 | 87 | 1018.7 |
| 20260902132459 | 77 | 321 | 2.0 | 4.0 | 0.00 | 0.00 | 0.00 | 87 | 1018.7 |
| 20260902132056 | 77 | 307 | 2.0 | 3.0 | 0.00 | 0.00 | 0.00 | 88 | 1018.6 |
| 20260902132000 | 77 | 312 | 2.0 | 3.0 | 0.00 | 0.00 | 0.00 | 88 | 1018.7 |
| 20260902131857 | 77 | 307 | 1.0 | 3.0 | 0.00 | 0.00 | 0.00 | 88 | 1018.7 |
| 20260902131757 | 77 | 321 | 2.0 | 3.0 | 0.00 | 0.00 | 0.00 | 88 | 1018.7 |
| 20260902131658 | 77 | 296 | 2.0 | 3.0 | 0.00 | 0.00 | 0.00 | 87 | 1018.7 |
| 20260902131556 | 77 | 294 | 2.0 | 3.0 | 0.00 | 0.00 | 0.00 | 87 | 1018.6 |
| 20260902131459 | 77 | 307 | 1.0 | 3.0 | 0.00 | 0.00 | 0.00 | 88 | 1018.7 |
| 20260902131357 | 77 | 300 | 3.0 | 3.0 | 0.00 | 0.00 | 0.00 | 88 | 1018.7 |
| 20260902131257 | 77 | 300 | 2.0 | 2.0 | 0.00 | 0.00 | 0.00 | 88 | 1018.7 |
| 20260902131157 | 77 | 307 | 2.0 | 3.0 | 0.00 | 0.00 | 0.00 | 88 | 1018.7 |
| 20260902131057 | 77 | 286 | 2.0 | 3.0 | 0.00 | 0.00 | 0.00 | 88 | 1018.7 |
| 20260902131000 | 77 | 300 | 2.0 | 3.0 | 0.00 | 0.00 | 0.00 | 88 | 1018.7 |
| 20260902130857 | 77 | 286 | 2.0 | 3.0 | 0.00 | 0.00 | 0.00 | 88 | 1018.7 |
| 20260902130757 | 77 | 284 | 1.0 | 3.0 | 0.00 | 0.00 | 0.00 | 87 | 1018.7 |
| 20260902130458 | 77 | 288 | 0.0 | 3.0 | 0.00 | 0.00 | 0.00 | 87 | 1018.7 |
| 20260902130358 | 77 | 268 | 2.0 | 3.0 | 0.00 | 0.00 | 0.00 | 87 | 1018.8 |
| 20260902130257 | 77 | 316 | 2.0 | 3.0 | 0.00 | 0.00 | 0.00 | 87 | 1018.7 |
| 20260902130158 | 77 | 335 | 2.0 | 3.0 | 0.00 | 0.00 | 0.00 | 87 | 1018.8 |
| 20260902130058 | 77 | 296 | 2.0 | 3.0 | 0.00 | 0.00 | 0.00 | 88 | 1018.7 |
| 20260902130000 | 77 | 311 | 2.0 | 3.0 | 0.00 | 0.00 | 0.00 | 88 | 1018.7 |
| 20260902125857 | 77 | 285 | 0.0 | 3.0 | 0.00 | 0.00 | 0.00 | 88 | 1018.7 |
| 20260902125757 | 77 | 280 | 2.0 | 3.0 | 0.00 | 0.00 | 0.00 | 88 | 1018.8 |
| 20260902125657 | 77 | 295 | 0.0 | 2.0 | 0.00 | 0.00 | 0.00 | 88 | 1018.7 |
| 20260902125556 | 77 | 300 | 0.0 | 2.0 | 0.00 | 0.00 | 0.00 | 88 | 1018.7 |
| 20260902125458 | 77 | 303 | 0.0 | 2.0 | 0.00 | 0.00 | 0.00 | 88 | 1018.7 |
| 20260902125357 | 77 | 303 | 0.0 | 3.0 | 0.00 | 0.00 | 0.00 | 88 | 1018.7 |
| 20260902125257 | 77 | 303 | 0.0 | 3.0 | 0.00 | 0.00 | 0.00 | 88 | 1018.7 |
| 20260902125157 | 77 | 288 | 0.0 | 3.0 | 0.00 | 0.00 | 0.00 | 88 | 1018.7 |
| 20260902125058 | 77 | 296 | 0.0 | 3.0 | 0.00 | 0.00 | 0.00 | 88 | 1018.7 |
| 20260902125000 | 77 | 310 | 0.0 | 3.0 | 0.00 | 0.00 | 0.00 | 88 | 1018.7 |
| 20260902124857 | 77 | 301 | 0.0 | 3.0 | 0.00 | 0.00 | 0.00 | 89 | 1018.7 |
| 20260902124757 | 77 | 307 | 0.0 | 3.0 | 0.00 | 0.00 | 0.00 | 89 | 1018.7 |
| 20260902124656 | 77 | 319 | 0.0 | 3.0 | 0.00 | 0.00 | 0.00 | 89 | 1018.6 |
| 20260902124558 | 77 | 303 | 1.0 | 3.0 | 0.00 | 0.00 | 0.00 | 89 | 1018.6 |
| 20260902124458 | 76 | 317 | 1.0 | 3.0 | 0.00 | 0.00 | 0.00 | 89 | 1018.5 |
| 20260902124358 | 76 | 316 | 0.0 | 3.0 | 0.00 | 0.00 | 0.00 | 89 | 1018.5 |
| 20260902124256 | 76 | 296 | 3.0 | 3.0 | 0.00 | 0.00 | 0.00 | 89 | 1018.5 |
| 20260902124157 | 76 | 314 | 1.0 | 3.0 | 0.00 | 0.00 | 0.00 | 89 | 1018.5 |
| 20260902124056 | 76 | 298 | 2.0 | 3.0 | 0.00 | 0.00 | 0.00 | 89 | 1018.5 |
| 20260902123959 | 76 | 317 | 2.0 | 3.0 | 0.00 | 0.00 | 0.00 | 90 | 1018.6 |
| 20260902123859 | 76 | 314 | 3.0 | 3.0 | 0.00 | 0.00 | 0.00 | 90 | 1018.5 |
| 20260902123756 | 76 | 300 | 3.0 | 3.0 | 0.00 | 0.00 | 0.00 | 90 | 1018.5 |
| 20260902123656 | 76 | 302 | 3.0 | 3.0 | 0.00 | 0.00 | 0.00 | 90 | 1018.4 |
| 20260902123458 | 76 | 300 | 2.0 | 3.0 | 0.00 | 0.00 | 0.00 | 90 | 1018.4 |
| 20260902123358 | 76 | 296 | 2.0 | 3.0 | 0.00 | 0.00 | 0.00 | 90 | 1018.5 |
| 20260902123157 | 76 | 307 | 2.0 | 3.0 | 0.00 | 0.00 | 0.00 | 90 | 1018.4 |
| 20260902123058 | 76 | 307 | 3.0 | 3.0 | 0.00 | 0.00 | 0.00 | 90 | 1018.4 |
| 20260902123000 | 75 | 301 | 2.0 | 3.0 | 0.00 | 0.00 | 0.00 | 90 | 1018.4 |
| 20260902122856 | 75 | 290 | 3.0 | 3.0 | 0.00 | 0.00 | 0.00 | 90 | 1018.4 |
| 20260902122756 | 75 | 300 | 2.0 | 3.0 | 0.00 | 0.00 | 0.00 | 90 | 1018.4 |
| 20260902122657 | 75 | 304 | 2.0 | 3.0 | 0.00 | 0.00 | 0.00 | 90 | 1018.5 |
| 20260902122557 | 75 | 312 | 2.0 | 3.0 | 0.00 | 0.00 | 0.00 | 90 | 1018.5 |
| 20260902122458 | 75 | 309 | 2.0 | 3.0 | 0.00 | 0.00 | 0.00 | 90 | 1018.5 |
| 20260902122357 | 75 | 311 | 2.0 | 3.0 | 0.00 | 0.00 | 0.00 | 90 | 1018.5 |
| 20260902122257 | 75 | 319 | 2.0 | 3.0 | 0.00 | 0.00 | 0.00 | 90 | 1018.5 |
| 20260902122156 | 75 | 326 | 2.0 | 3.0 | 0.00 | 0.00 | 0.00 | 90 | 1018.5 |
| 20260902122000 | 75 | 316 | 2.0 | 3.0 | 0.00 | 0.00 | 0.00 | 90 | 1018.5 |
| 20260902121857 | 75 | 330 | 1.0 | 2.0 | 0.00 | 0.00 | 0.00 | 90 | 1018.4 |
| 20260902121757 | 75 | 304 | 1.0 | 2.0 | 0.00 | 0.00 | 0.00 | 90 | 1018.5 |
| 20260902121657 | 75 | 321 | 2.0 | 2.0 | 0.00 | 0.00 | 0.00 | 90 | 1018.4 |
| 20260902121558 | 75 | 310 | 1.0 | 3.0 | 0.00 | 0.00 | 0.00 | 90 | 1018.5 |
| 20260902121459 | 75 | 344 | 1.0 | 3.0 | 0.00 | 0.00 | 0.00 | 90 | 1018.5 |
| 20260902121357 | 75 | 302 | 1.0 | 3.0 | 0.00 | 0.00 | 0.00 | 90 | 1018.4 |
| 20260902121257 | 75 | 352 | 1.0 | 3.0 | 0.00 | 0.00 | 0.00 | 90 | 1018.5 |
| 20260902121157 | 75 | 340 | 2.0 | 3.0 | 0.00 | 0.00 | 0.00 | 90 | 1018.4 |
| 20260902121057 | 75 | 340 | 0.0 | 3.0 | 0.00 | 0.00 | 0.00 | 90 | 1018.4 |
| 20260902120959 | 75 | 356 | 0.0 | 3.0 | 0.00 | 0.00 | 0.00 | 90 | 1018.4 |
| 20260902120857 | 75 | 342 | 0.0 | 3.0 | 0.00 | 0.00 | 0.00 | 90 | 1018.4 |
| 20260902120757 | 75 | 345 | 2.0 | 3.0 | 0.00 | 0.00 | 0.00 | 90 | 1018.4 |
| 20260902120657 | 75 | 359 | 2.0 | 3.0 | 0.00 | 0.00 | 0.00 | 90 | 1018.4 |
| 20260902120557 | 75 | 351 | 0.0 | 2.0 | 0.00 | 0.00 | 0.00 | 91 | 1018.4 |
| 20260902120458 | 75 | 335 | 0.0 | 2.0 | 0.00 | 0.00 | 0.00 | 91 | 1018.3 |
| 20260902120358 | 75 | 354 | 0.0 | 2.0 | 0.00 | 0.00 | 0.00 | 91 | 1018.4 |
| 20260902120157 | 75 | 340 | 0.0 | 2.0 | 0.00 | 0.00 | 0.00 | 91 | 1018.3 |
| 20260902120057 | 75 | 328 | 2.0 | 2.0 | 0.00 | 0.00 | 0.00 | 91 | 1018.3 |
| 20260902120002 | 75 | 331 | 2.0 | 2.0 | 0.00 | 0.00 | 0.00 | 91 | 1018.3 |
| 20260902115858 | 75 | 326 | 0.0 | 2.0 | 0.00 | 0.00 | 0.00 | 91 | 1018.3 |
| 20260902115657 | 74 | 311 | 2.0 | 2.0 | 0.00 | 0.00 | 0.00 | 91 | 1018.2 |
| 20260902115558 | 74 | 360 | 1.0 | 2.0 | 0.00 | 0.00 | 0.00 | 91 | 1018.2 |
| 20260902115500 | 74 | 1 | 0.0 | 2.0 | 0.00 | 0.00 | 0.00 | 91 | 1018.2 |
| 20260902115358 | 74 | 360 | 0.0 | 2.0 | 0.00 | 0.00 | 0.00 | 91 | 1018.2 |
| 20260902115159 | 74 | 340 | 0.0 | 2.0 | 0.00 | 0.00 | 0.00 | 91 | 1018.2 |
| 20260902115057 | 74 | 333 | 1.0 | 2.0 | 0.00 | 0.00 | 0.00 | 91 | 1018.2 |
| 20260902115001 | 74 | 335 | 0.0 | 2.0 | 0.00 | 0.00 | 0.00 | 91 | 1018.2 |
| 20260902114858 | 74 | 342 | 2.0 | 2.0 | 0.00 | 0.00 | 0.00 | 91 | 1018.2 |
| 20260902114758 | 74 | 333 | 2.0 | 2.0 | 0.00 | 0.00 | 0.00 | 91 | 1018.1 |
| 20260902114658 | 74 | 342 | 2.0 | 2.0 | 0.00 | 0.00 | 0.00 | 91 | 1018.2 |
| 20260902114558 | 74 | 319 | 1.0 | 2.0 | 0.00 | 0.00 | 0.00 | 91 | 1018.2 |
| 20260902114459 | 74 | 340 | 1.0 | 2.0 | 0.00 | 0.00 | 0.00 | 91 | 1018.0 |
| 20260902114358 | 74 | 328 | 2.0 | 2.0 | 0.00 | 0.00 | 0.00 | 91 | 1018.1 |
| 20260902114258 | 74 | 331 | 1.0 | 2.0 | 0.00 | 0.00 | 0.00 | 90 | 1018.1 |
| 20260902114158 | 74 | 330 | 0.0 | 2.0 | 0.00 | 0.00 | 0.00 | 90 | 1018.1 |
| 20260902114058 | 74 | 316 | 0.0 | 2.0 | 0.00 | 0.00 | 0.00 | 90 | 1018.1 |
| 20260902113859 | 74 | 349 | 0.0 | 2.0 | 0.00 | 0.00 | 0.00 | 90 | 1018.1 |
| 20260902113759 | 74 | 323 | 0.0 | 2.0 | 0.00 | 0.00 | 0.00 | 90 | 1018.1 |
| 20260902113658 | 74 | 319 | 0.0 | 2.0 | 0.00 | 0.00 | 0.00 | 90 | 1018.0 |
| 20260902113558 | 74 | 337 | 0.0 | 2.0 | 0.00 | 0.00 | 0.00 | 90 | 1018.0 |
| 20260902113359 | 74 | 328 | 0.0 | 2.0 | 0.00 | 0.00 | 0.00 | 90 | 1017.9 |
| 20260902113258 | 74 | 321 | 0.0 | 2.0 | 0.00 | 0.00 | 0.00 | 90 | 1018.0 |
| 20260902113159 | 74 | 319 | 0.0 | 2.0 | 0.00 | 0.00 | 0.00 | 90 | 1018.0 |
| 20260902113058 | 74 | 326 | 0.0 | 2.0 | 0.00 | 0.00 | 0.00 | 90 | 1017.9 |
| 20260902113004 | 74 | 323 | 0.0 | 2.0 | 0.00 | 0.00 | 0.00 | 90 | 1017.9 |
| 20260902112858 | 74 | 323 | 0.0 | 2.0 | 0.00 | 0.00 | 0.00 | 90 | 1017.9 |
| 20260902112758 | 74 | 359 | 0.0 | 2.0 | 0.00 | 0.00 | 0.00 | 90 | 1017.9 |
| 20260902112658 | 74 | 323 | 0.0 | 3.0 | 0.00 | 0.00 | 0.00 | 90 | 1017.9 |
| 20260902112557 | 74 | 330 | 0.0 | 3.0 | 0.00 | 0.00 | 0.00 | 90 | 1018.0 |
| 20260902112459 | 74 | 314 | 0.0 | 3.0 | 0.00 | 0.00 | 0.00 | 90 | 1017.9 |
| 20260902112357 | 74 | 300 | 1.0 | 3.0 | 0.00 | 0.00 | 0.00 | 90 | 1017.9 |
| 20260902112158 | 74 | 345 | 1.0 | 3.0 | 0.00 | 0.00 | 0.00 | 90 | 1018.0 |
| 20260902112057 | 74 | 349 | 0.0 | 3.0 | 0.00 | 0.00 | 0.00 | 90 | 1017.9 |
| 20260902112003 | 74 | 354 | 2.0 | 3.0 | 0.00 | 0.00 | 0.00 | 90 | 1017.9 |
| 20260902111757 | 74 | 344 | 2.0 | 3.0 | 0.00 | 0.00 | 0.00 | 90 | 1017.9 |
| 20260902111558 | 74 | 338 | 2.0 | 3.0 | 0.00 | 0.00 | 0.00 | 90 | 1017.9 |
| 20260902111459 | 74 | 331 | 1.0 | 3.0 | 0.00 | 0.00 | 0.00 | 90 | 1017.8 |
| 20260902111358 | 74 | 330 | 0.0 | 3.0 | 0.00 | 0.00 | 0.00 | 90 | 1017.9 |
| 20260902111259 | 74 | 330 | 0.0 | 3.0 | 0.00 | 0.00 | 0.00 | 90 | 1017.9 |
| 20260902111159 | 74 | 337 | 1.0 | 3.0 | 0.00 | 0.00 | 0.00 | 90 | 1017.8 |
| 20260902111059 | 74 | 338 | 1.0 | 3.0 | 0.00 | 0.00 | 0.00 | 90 | 1017.9 |
| 20260902110859 | 74 | 328 | 2.0 | 3.0 | 0.00 | 0.00 | 0.00 | 90 | 1017.8 |
| 20260902110658 | 74 | 319 | 2.0 | 3.0 | 0.00 | 0.00 | 0.00 | 90 | 1017.9 |
| 20260902110357 | 74 | 328 | 2.0 | 3.0 | 0.00 | 0.00 | 0.00 | 90 | 1017.8 |
| 20260902110258 | 74 | 328 | 0.0 | 3.0 | 0.00 | 0.00 | 0.00 | 90 | 1017.8 |
| 20260902110158 | 74 | 328 | 2.0 | 3.0 | 0.00 | 0.00 | 0.00 | 90 | 1017.8 |
| 20260902110100 | 74 | 324 | 2.0 | 3.0 | 0.00 | 0.00 | 0.00 | 90 | 1017.8 |
| 20260902110005 | 74 | 328 | 1.0 | 3.0 | 0.00 | 0.00 | 0.00 | 90 | 1017.8 |
| 20260902105858 | 74 | 353 | 1.0 | 3.0 | 0.00 | 0.00 | 0.00 | 90 | 1017.7 |
| 20260902105757 | 74 | 338 | 2.0 | 3.0 | 0.00 | 0.00 | 0.00 | 90 | 1017.7 |
| 20260902105657 | 74 | 328 | 2.0 | 3.0 | 0.00 | 0.00 | 0.00 | 90 | 1017.8 |
| 20260902105458 | 74 | 356 | 0.0 | 3.0 | 0.00 | 0.00 | 0.00 | 90 | 1017.8 |
| 20260902105357 | 74 | 358 | 2.0 | 3.0 | 0.00 | 0.00 | 0.00 | 90 | 1017.7 |
| 20260902105256 | 74 | 347 | 2.0 | 2.0 | 0.00 | 0.00 | 0.00 | 90 | 1017.7 |
| 20260902105157 | 74 | 328 | 2.0 | 2.0 | 0.00 | 0.00 | 0.00 | 90 | 1017.7 |
| 20260902105057 | 74 | 342 | 2.0 | 2.0 | 0.00 | 0.00 | 0.00 | 90 | 1017.7 |
| 20260902104959 | 74 | 335 | 2.0 | 2.0 | 0.00 | 0.00 | 0.00 | 90 | 1017.7 |
| 20260902104858 | 74 | 338 | 2.0 | 2.0 | 0.00 | 0.00 | 0.00 | 90 | 1017.7 |
| 20260902104657 | 74 | 338 | 2.0 | 3.0 | 0.00 | 0.00 | 0.00 | 90 | 1017.6 |
| 20260902104557 | 74 | 335 | 2.0 | 3.0 | 0.00 | 0.00 | 0.00 | 90 | 1017.7 |
| 20260902104357 | 74 | 337 | 2.0 | 3.0 | 0.00 | 0.00 | 0.00 | 90 | 1017.6 |
| 20260902104257 | 74 | 337 | 2.0 | 3.0 | 0.00 | 0.00 | 0.00 | 90 | 1017.6 |
| 20260902104157 | 74 | 328 | 1.0 | 3.0 | 0.00 | 0.00 | 0.00 | 90 | 1017.6 |
| 20260902104057 | 74 | 317 | 2.0 | 3.0 | 0.00 | 0.00 | 0.00 | 90 | 1017.7 |
| 20260902103959 | 74 | 326 | 2.0 | 3.0 | 0.00 | 0.00 | 0.00 | 90 | 1017.7 |
| 20260902103857 | 74 | 324 | 2.0 | 3.0 | 0.00 | 0.00 | 0.00 | 90 | 1017.6 |
| 20260902103757 | 74 | 319 | 1.0 | 3.0 | 0.00 | 0.00 | 0.00 | 90 | 1017.7 |
| 20260902103657 | 74 | 330 | 2.0 | 3.0 | 0.00 | 0.00 | 0.00 | 90 | 1017.7 |
| 20260902103556 | 74 | 323 | 2.0 | 3.0 | 0.00 | 0.00 | 0.00 | 90 | 1017.6 |
| 20260902103458 | 74 | 330 | 1.0 | 3.0 | 0.00 | 0.00 | 0.00 | 90 | 1017.6 |
| 20260902103257 | 74 | 326 | 2.0 | 3.0 | 0.00 | 0.00 | 0.00 | 90 | 1017.7 |
| 20260902103157 | 74 | 338 | 1.0 | 3.0 | 0.00 | 0.00 | 0.00 | 90 | 1017.6 |
| 20260902103057 | 74 | 351 | 2.0 | 3.0 | 0.00 | 0.00 | 0.00 | 90 | 1017.6 |
| 20260902103000 | 74 | 328 | 2.0 | 3.0 | 0.00 | 0.00 | 0.00 | 90 | 1017.6 |
| 20260902102856 | 74 | 347 | 2.0 | 2.0 | 0.00 | 0.00 | 0.00 | 90 | 1017.6 |
| 20260902102757 | 74 | 335 | 0.0 | 2.0 | 0.00 | 0.00 | 0.00 | 90 | 1017.6 |
| 20260902102657 | 74 | 335 | 2.0 | 2.0 | 0.00 | 0.00 | 0.00 | 90 | 1017.6 |
| 20260902102557 | 74 | 328 | 1.0 | 2.0 | 0.00 | 0.00 | 0.00 | 90 | 1017.6 |
| 20260902102458 | 74 | 338 | 2.0 | 2.0 | 0.00 | 0.00 | 0.00 | 90 | 1017.6 |
| 20260902102357 | 74 | 337 | 2.0 | 2.0 | 0.00 | 0.00 | 0.00 | 90 | 1017.6 |
| 20260902102257 | 74 | 338 | 1.0 | 2.0 | 0.00 | 0.00 | 0.00 | 90 | 1017.5 |
| 20260902102157 | 74 | 340 | 0.0 | 2.0 | 0.00 | 0.00 | 0.00 | 90 | 1017.6 |
| 20260902102057 | 74 | 342 | 0.0 | 2.0 | 0.00 | 0.00 | 0.00 | 90 | 1017.6 |
| 20260902101757 | 74 | 347 | 0.0 | 2.0 | 0.00 | 0.00 | 0.00 | 90 | 1017.6 |
| 20260902101656 | 74 | 321 | 0.0 | 2.0 | 0.00 | 0.00 | 0.00 | 89 | 1017.5 |
| 20260902101557 | 74 | 321 | 0.0 | 2.0 | 0.00 | 0.00 | 0.00 | 89 | 1017.6 |
| 20260902101458 | 74 | 321 | 0.0 | 2.0 | 0.00 | 0.00 | 0.00 | 89 | 1017.6 |
| 20260902101357 | 74 | 316 | 0.0 | 2.0 | 0.00 | 0.00 | 0.00 | 89 | 1017.6 |
| 20260902101257 | 74 | 319 | 0.0 | 2.0 | 0.00 | 0.00 | 0.00 | 89 | 1017.6 |
| 20260902101056 | 74 | 330 | 0.0 | 2.0 | 0.00 | 0.00 | 0.00 | 89 | 1017.6 |
| 20260902100959 | 74 | 335 | 0.0 | 2.0 | 0.00 | 0.00 | 0.00 | 89 | 1017.6 |
| 20260902100858 | 74 | 324 | 0.0 | 2.0 | 0.00 | 0.00 | 0.00 | 89 | 1017.5 |
| 20260902100757 | 74 | 330 | 0.0 | 2.0 | 0.00 | 0.00 | 0.00 | 89 | 1017.6 |
| 20260902100657 | 74 | 330 | 0.0 | 2.0 | 0.00 | 0.00 | 0.00 | 89 | 1017.5 |
| 20260902100458 | 74 | 330 | 0.0 | 3.0 | 0.00 | 0.00 | 0.00 | 89 | 1017.5 |
| 20260902100356 | 74 | 335 | 0.0 | 3.0 | 0.00 | 0.00 | 0.00 | 89 | 1017.6 |
| 20260902100257 | 74 | 324 | 0.0 | 3.0 | 0.00 | 0.00 | 0.00 | 89 | 1017.6 |
| 20260902100157 | 74 | 328 | 0.0 | 3.0 | 0.00 | 0.00 | 0.00 | 89 | 1017.5 |
| 20260902100057 | 74 | 333 | 0.0 | 3.0 | 0.00 | 0.00 | 0.00 | 89 | 1017.5 |
| 20260902100001 | 74 | 342 | 0.0 | 3.0 | 0.00 | 0.00 | 0.00 | 89 | 1017.5 |
| 20260902095857 | 74 | 330 | 0.0 | 3.0 | 0.00 | 0.00 | 0.00 | 89 | 1017.5 |
| 20260902095459 | 74 | 319 | 1.0 | 2.0 | 0.00 | 0.00 | 0.00 | 89 | 1017.4 |
| 20260902095357 | 74 | 338 | 1.0 | 2.0 | 0.00 | 0.00 | 0.00 | 89 | 1017.3 |
| 20260902095257 | 74 | 1 | 0.0 | 2.0 | 0.00 | 0.00 | 0.00 | 89 | 1017.3 |
| 20260902095157 | 74 | 360 | 0.0 | 2.0 | 0.00 | 0.00 | 0.00 | 89 | 1017.4 |
| 20260902095056 | 74 | 335 | 0.0 | 2.0 | 0.00 | 0.00 | 0.00 | 89 | 1017.3 |
| 20260902095000 | 74 | 337 | 0.0 | 2.0 | 0.00 | 0.00 | 0.00 | 89 | 1017.2 |
| 20260902094857 | 74 | 337 | 0.0 | 3.0 | 0.00 | 0.00 | 0.00 | 89 | 1017.3 |
| 20260902094757 | 74 | 314 | 0.0 | 3.0 | 0.00 | 0.00 | 0.00 | 89 | 1017.2 |
| 20260902094656 | 74 | 314 | 0.0 | 3.0 | 0.00 | 0.00 | 0.00 | 89 | 1017.2 |
| 20260902094459 | 74 | 321 | 0.0 | 3.0 | 0.00 | 0.00 | 0.00 | 89 | 1017.1 |
| 20260902094357 | 74 | 309 | 1.0 | 3.0 | 0.00 | 0.00 | 0.00 | 89 | 1017.1 |
| 20260902094257 | 74 | 328 | 1.0 | 3.0 | 0.00 | 0.00 | 0.00 | 89 | 1017.1 |
| 20260902094157 | 74 | 311 | 1.0 | 3.0 | 0.00 | 0.00 | 0.00 | 89 | 1017.1 |
| 20260902094057 | 74 | 311 | 2.0 | 3.0 | 0.00 | 0.00 | 0.00 | 89 | 1017.1 |
| 20260902093959 | 74 | 295 | 2.0 | 3.0 | 0.00 | 0.00 | 0.00 | 89 | 1017.1 |
| 20260902093856 | 74 | 293 | 2.0 | 3.0 | 0.00 | 0.00 | 0.00 | 89 | 1017.2 |
| 20260902093756 | 74 | 326 | 2.0 | 3.0 | 0.00 | 0.00 | 0.00 | 89 | 1017.2 |
| 20260902093657 | 74 | 286 | 2.0 | 3.0 | 0.00 | 0.00 | 0.00 | 89 | 1017.2 |
| 20260902093557 | 74 | 319 | 2.0 | 2.0 | 0.00 | 0.00 | 0.00 | 89 | 1017.1 |
| 20260902093458 | 74 | 333 | 1.0 | 2.0 | 0.00 | 0.00 | 0.00 | 89 | 1017.1 |
| 20260902093357 | 74 | 314 | 2.0 | 2.0 | 0.00 | 0.00 | 0.00 | 89 | 1017.1 |
| 20260902093256 | 74 | 338 | 2.0 | 2.0 | 0.00 | 0.00 | 0.00 | 89 | 1017.2 |
| 20260902093157 | 74 | 338 | 2.0 | 2.0 | 0.00 | 0.00 | 0.00 | 89 | 1017.1 |
| 20260902093057 | 74 | 328 | 2.0 | 2.0 | 0.00 | 0.00 | 0.00 | 89 | 1017.0 |
| 20260902092958 | 74 | 345 | 0.0 | 2.0 | 0.00 | 0.00 | 0.00 | 89 | 1017.1 |
| 20260902092857 | 74 | 309 | 1.0 | 2.0 | 0.00 | 0.00 | 0.00 | 89 | 1017.1 |
| 20260902092756 | 74 | 338 | 0.0 | 2.0 | 0.00 | 0.00 | 0.00 | 89 | 1017.0 |
| 20260902092656 | 74 | 340 | 0.0 | 2.0 | 0.00 | 0.00 | 0.00 | 89 | 1017.1 |
| 20260902092557 | 74 | 360 | 1.0 | 2.0 | 0.00 | 0.00 | 0.00 | 89 | 1017.0 |
| 20260902092458 | 74 | 20 | 0.0 | 2.0 | 0.00 | 0.00 | 0.00 | 89 | 1017.1 |
| 20260902092356 | 74 | 323 | 0.0 | 2.0 | 0.00 | 0.00 | 0.00 | 89 | 1017.1 |
| 20260902092157 | 74 | 349 | 0.0 | 2.0 | 0.00 | 0.00 | 0.00 | 89 | 1017.2 |
| 20260902092056 | 74 | 335 | 0.0 | 2.0 | 0.00 | 0.00 | 0.00 | 89 | 1017.0 |
| 20260902091958 | 74 | 337 | 0.0 | 2.0 | 0.00 | 0.00 | 0.00 | 89 | 1017.1 |
| 20260902091857 | 74 | 324 | 1.0 | 2.0 | 0.00 | 0.00 | 0.00 | 88 | 1017.1 |
| 20260902091757 | 74 | 333 | 2.0 | 2.0 | 0.00 | 0.00 | 0.00 | 88 | 1017.1 |
| 20260902091656 | 74 | 328 | 0.0 | 2.0 | 0.00 | 0.00 | 0.00 | 88 | 1017.1 |
| 20260902091556 | 74 | 347 | 2.0 | 2.0 | 0.00 | 0.00 | 0.00 | 88 | 1017.1 |
| 20260902091458 | 74 | 335 | 1.0 | 2.0 | 0.00 | 0.00 | 0.00 | 88 | 1017.0 |
| 20260902091357 | 75 | 316 | 0.0 | 2.0 | 0.00 | 0.00 | 0.00 | 88 | 1017.0 |
| 20260902091257 | 75 | 317 | 0.0 | 2.0 | 0.00 | 0.00 | 0.00 | 88 | 1017.0 |
| 20260902091156 | 75 | 319 | 0.0 | 2.0 | 0.00 | 0.00 | 0.00 | 88 | 1017.0 |
| 20260902091057 | 75 | 302 | 0.0 | 2.0 | 0.00 | 0.00 | 0.00 | 88 | 1016.9 |
| 20260902091000 | 75 | 314 | 0.0 | 2.0 | 0.00 | 0.00 | 0.00 | 88 | 1016.9 |
| 20260902090857 | 75 | 319 | 0.0 | 2.0 | 0.00 | 0.00 | 0.00 | 88 | 1017.0 |
| 20260902090657 | 75 | 310 | 1.0 | 2.0 | 0.00 | 0.00 | 0.00 | 88 | 1016.9 |
| 20260902090556 | 75 | 312 | 0.0 | 2.0 | 0.00 | 0.00 | 0.00 | 88 | 1016.9 |
| 20260902090458 | 75 | 316 | 0.0 | 2.0 | 0.00 | 0.00 | 0.00 | 88 | 1016.9 |
| 20260902090357 | 75 | 323 | 0.0 | 2.0 | 0.00 | 0.00 | 0.00 | 88 | 1016.8 |
| 20260902090256 | 75 | 328 | 0.0 | 2.0 | 0.00 | 0.00 | 0.00 | 88 | 1016.9 |
| 20260902090156 | 75 | 340 | 2.0 | 2.0 | 0.00 | 0.00 | 0.00 | 88 | 1016.8 |
| 20260902090057 | 75 | 337 | 0.0 | 2.0 | 0.00 | 0.00 | 0.00 | 88 | 1016.9 |
| 20260902090000 | 75 | 340 | 2.0 | 2.0 | 0.00 | 0.00 | 0.00 | 88 | 1016.9 |
| 20260902085858 | 75 | 342 | 0.0 | 2.0 | 0.00 | 0.00 | 0.00 | 88 | 1016.9 |
| 20260902085758 | 75 | 330 | 1.0 | 2.0 | 0.00 | 0.00 | 0.00 | 88 | 1016.9 |
| 20260902085656 | 75 | 331 | 0.0 | 2.0 | 0.00 | 0.00 | 0.00 | 88 | 1016.8 |
| 20260902085458 | 75 | 319 | 0.0 | 2.0 | 0.00 | 0.00 | 0.00 | 88 | 1016.9 |
| 20260902085356 | 75 | 328 | 0.0 | 2.0 | 0.00 | 0.00 | 0.00 | 88 | 1016.8 |
| 20260902085257 | 75 | 319 | 0.0 | 2.0 | 0.00 | 0.00 | 0.00 | 88 | 1016.8 |
| 20260902085157 | 75 | 323 | 0.0 | 2.0 | 0.00 | 0.00 | 0.00 | 88 | 1016.9 |
| 20260902085057 | 75 | 333 | 0.0 | 2.0 | 0.00 | 0.00 | 0.00 | 88 | 1016.8 |
| 20260902084959 | 75 | 307 | 0.0 | 2.0 | 0.00 | 0.00 | 0.00 | 88 | 1016.8 |
| 20260902084858 | 75 | 328 | 0.0 | 2.0 | 0.00 | 0.00 | 0.00 | 88 | 1016.8 |
| 20260902084757 | 75 | 321 | 0.0 | 2.0 | 0.00 | 0.00 | 0.00 | 88 | 1016.7 |
| 20260902084557 | 75 | 324 | 0.0 | 2.0 | 0.00 | 0.00 | 0.00 | 88 | 1016.7 |
| 20260902084458 | 75 | 330 | 1.0 | 2.0 | 0.00 | 0.00 | 0.00 | 88 | 1016.8 |
| 20260902084357 | 75 | 359 | 0.0 | 2.0 | 0.00 | 0.00 | 0.00 | 88 | 1016.8 |
| 20260902084157 | 75 | 346 | 0.0 | 2.0 | 0.00 | 0.00 | 0.00 | 87 | 1016.8 |
| 20260902084057 | 75 | 330 | 0.0 | 2.0 | 0.00 | 0.00 | 0.00 | 88 | 1016.7 |
| 20260902083959 | 75 | 330 | 0.0 | 2.0 | 0.00 | 0.00 | 0.00 | 88 | 1016.8 |
| 20260902083855 | 75 | 344 | 0.0 | 2.0 | 0.00 | 0.00 | 0.00 | 88 | 1016.7 |
| 20260902083756 | 75 | 331 | 0.0 | 2.0 | 0.00 | 0.00 | 0.00 | 88 | 1016.7 |
| 20260902083557 | 75 | 330 | 2.0 | 2.0 | 0.00 | 0.00 | 0.00 | 88 | 1016.7 |
| 20260902083458 | 75 | 337 | 0.0 | 2.0 | 0.00 | 0.00 | 0.00 | 87 | 1016.8 |
| 20260902083256 | 75 | 344 | 1.0 | 3.0 | 0.00 | 0.00 | 0.00 | 87 | 1016.7 |
| 20260902083157 | 75 | 330 | 1.0 | 3.0 | 0.00 | 0.00 | 0.00 | 87 | 1016.7 |
| 20260902083056 | 75 | 330 | 1.0 | 3.0 | 0.00 | 0.00 | 0.00 | 87 | 1016.7 |
| 20260902082959 | 75 | 323 | 0.0 | 3.0 | 0.00 | 0.00 | 0.00 | 87 | 1016.7 |
| 20260902082857 | 75 | 316 | 0.0 | 3.0 | 0.00 | 0.00 | 0.00 | 87 | 1016.7 |
| 20260902082757 | 75 | 331 | 0.0 | 3.0 | 0.00 | 0.00 | 0.00 | 87 | 1016.7 |
| 20260902082656 | 75 | 324 | 0.0 | 3.0 | 0.00 | 0.00 | 0.00 | 87 | 1016.7 |
| 20260902082457 | 75 | 314 | 0.0 | 3.0 | 0.00 | 0.00 | 0.00 | 87 | 1016.6 |
| 20260902082356 | 75 | 319 | 3.0 | 3.0 | 0.00 | 0.00 | 0.00 | 87 | 1016.7 |
| 20260902082256 | 75 | 319 | 2.0 | 2.0 | 0.00 | 0.00 | 0.00 | 87 | 1016.7 |
| 20260902082157 | 75 | 296 | 2.0 | 2.0 | 0.00 | 0.00 | 0.00 | 87 | 1016.7 |
| 20260902082057 | 75 | 312 | 2.0 | 2.0 | 0.00 | 0.00 | 0.00 | 87 | 1016.7 |
| 20260902082000 | 75 | 328 | 2.0 | 2.0 | 0.00 | 0.00 | 0.00 | 87 | 1016.7 |
| 20260902081857 | 75 | 317 | 0.0 | 2.0 | 0.00 | 0.00 | 0.00 | 87 | 1016.7 |
| 20260902081757 | 75 | 317 | 0.0 | 2.0 | 0.00 | 0.00 | 0.00 | 87 | 1016.7 |
| 20260902081656 | 75 | 330 | 0.0 | 2.0 | 0.00 | 0.00 | 0.00 | 87 | 1016.7 |
| 20260902081557 | 75 | 333 | 0.0 | 2.0 | 0.00 | 0.00 | 0.00 | 87 | 1016.7 |
| 20260902081459 | 75 | 323 | 0.0 | 2.0 | 0.00 | 0.00 | 0.00 | 87 | 1016.7 |
| 20260902081357 | 75 | 338 | 1.0 | 2.0 | 0.00 | 0.00 | 0.00 | 87 | 1016.6 |
| 20260902081256 | 75 | 342 | 0.0 | 2.0 | 0.00 | 0.00 | 0.00 | 87 | 1016.7 |
| 20260902081158 | 75 | 337 | 1.0 | 2.0 | 0.00 | 0.00 | 0.00 | 87 | 1016.7 |
| 20260902081057 | 75 | 345 | 2.0 | 2.0 | 0.00 | 0.00 | 0.00 | 87 | 1016.7 |
| 20260902080959 | 75 | 349 | 0.0 | 2.0 | 0.00 | 0.00 | 0.00 | 87 | 1016.8 |
| 20260902080856 | 75 | 352 | 0.0 | 2.0 | 0.00 | 0.00 | 0.00 | 87 | 1016.7 |
| 20260902080757 | 75 | 335 | 2.0 | 2.0 | 0.00 | 0.00 | 0.00 | 87 | 1016.8 |
| 20260902080657 | 75 | 338 | 2.0 | 2.0 | 0.00 | 0.00 | 0.00 | 87 | 1016.8 |
| 20260902080557 | 75 | 342 | 1.0 | 2.0 | 0.00 | 0.00 | 0.00 | 87 | 1016.8 |
| 20260902080458 | 75 | 330 | 0.0 | 2.0 | 0.00 | 0.00 | 0.00 | 87 | 1016.8 |
| 20260902080357 | 75 | 8 | 1.0 | 2.0 | 0.00 | 0.00 | 0.00 | 86 | 1016.8 |
| 20260902080257 | 75 | 354 | 1.0 | 2.0 | 0.00 | 0.00 | 0.00 | 86 | 1016.7 |
| 20260902080056 | 75 | 335 | 0.0 | 1.0 | 0.00 | 0.00 | 0.00 | 86 | 1016.7 |
| 20260902080002 | 75 | 338 | 0.0 | 1.0 | 0.00 | 0.00 | 0.00 | 86 | 1016.7 |
| 20260902075857 | 75 | 331 | 1.0 | 1.0 | 0.00 | 0.00 | 0.00 | 86 | 1016.7 |
| 20260902075757 | 75 | 330 | 0.0 | 1.0 | 0.00 | 0.00 | 0.00 | 86 | 1016.8 |
| 20260902075656 | 75 | 326 | 0.0 | 0.0 | 0.00 | 0.00 | 0.00 | 86 | 1016.8 |
| 20260902075458 | 75 | 345 | 0.0 | 0.0 | 0.00 | 0.00 | 0.00 | 86 | 1016.7 |
| 20260902075256 | 75 | 345 | 0.0 | 0.0 | 0.00 | 0.00 | 0.00 | 86 | 1016.7 |
| 20260902075156 | 76 | 345 | 0.0 | 2.0 | 0.00 | 0.00 | 0.00 | 86 | 1016.6 |
| 20260902074959 | 76 | 345 | 0.0 | 2.0 | 0.00 | 0.00 | 0.00 | 86 | 1016.7 |
| 20260902074857 | 76 | 338 | 0.0 | 2.0 | 0.00 | 0.00 | 0.00 | 86 | 1016.6 |
| 20260902074757 | 76 | 338 | 0.0 | 2.0 | 0.00 | 0.00 | 0.00 | 86 | 1016.7 |
| 20260902074657 | 76 | 1 | 0.0 | 2.0 | 0.00 | 0.00 | 0.00 | 86 | 1016.7 |